Wetterdaten: Mittwoch, 12.05.2010
Datum Zeit Temp. Innen Temp. Aussen UV X Diff Temp. Feuchte Inne Feuchte Auss Sonnenschein Luftdruck Regen ab 0,1 Wind Sonnenschein Windben
12.05.2010 00:03 15,1 C 5,9 C 0,0 UV-I 0,0 C 53 % 93 % 0 % 1005,1 hPa 0,1 l/m 10,8 km/h (2 Bft) 0 min 5,8 km/h (2 Bft)
12.05.2010 00:08 15,1 C 5,8 C 0,0 UV-I 0,0 C 53 % 93 % 0 % 1005,1 hPa 0,4 l/m 8,4 km/h (2 Bft) 0 min 10,9 km/h (2 Bft)
12.05.2010 00:13 15,1 C 5,9 C 0,0 UV-I 0,0 C 53 % 93 % 0 % 1005,3 hPa 0,3 l/m 8,4 km/h (2 Bft) 0 min 9,0 km/h (2 Bft)
12.05.2010 00:18 15,1 C 5,9 C 0,0 UV-I 0,0 C 53 % 93 % 0 % 1005,3 hPa 0,3 l/m 10,4 km/h (2 Bft) 0 min 11,6 km/h (2 Bft)
12.05.2010 00:23 15,1 C 5,9 C 0,0 UV-I 0,0 C 53 % 93 % 0 % 1005,3 hPa 0,2 l/m 11,6 km/h (2 Bft) 0 min 8,7 km/h (2 Bft)
12.05.2010 00:28 15,1 C 5,9 C 0,0 UV-I 0,0 C 53 % 93 % 0 % 1005,3 hPa 0,4 l/m 11,2 km/h (2 Bft) 0 min 16,7 km/h (3 Bft)
12.05.2010 00:33 15,1 C 5,9 C 0,0 UV-I 0,0 C 53 % 93 % 0 % 1005,0 hPa 0,1 l/m 12,4 km/h (3 Bft) 0 min 10,9 km/h (2 Bft)
12.05.2010 00:38 15,1 C 5,9 C 0,0 UV-I 0,0 C 53 % 93 % 0 % 1005,0 hPa 0,4 l/m 13,7 km/h (3 Bft) 0 min 9,3 km/h (2 Bft)
12.05.2010 00:43 14,9 C 5,9 C 0,0 UV-I 0,0 C 53 % 93 % 0 % 1005,0 hPa 0,1 l/m 14,5 km/h (3 Bft) 0 min 19,0 km/h (3 Bft)
12.05.2010 00:48 14,9 C 5,9 C 0,0 UV-I 0,0 C 54 % 93 % 0 % 1005,0 hPa 0,2 l/m 16,1 km/h (3 Bft) 0 min 15,4 km/h (3 Bft)
12.05.2010 00:53 14,9 C 5,9 C 0,0 UV-I 0,0 C 54 % 94 % 0 % 1004,4 hPa 0,3 l/m 17,7 km/h (3 Bft) 0 min 20,3 km/h (4 Bft)
12.05.2010 00:58 14,9 C 5,9 C 0,0 UV-I 0,0 C 54 % 94 % 0 % 1004,4 hPa 0,3 l/m 16,9 km/h (3 Bft) 0 min 16,4 km/h (3 Bft)
12.05.2010 01:03 14,9 C 5,8 C 0,0 UV-I 0,0 C 54 % 93 % 0 % 1004,4 hPa 0,1 l/m 17,7 km/h (3 Bft) 0 min 13,8 km/h (3 Bft)
12.05.2010 01:08 15,0 C 5,9 C 0,0 UV-I 0,0 C 54 % 94 % 0 % 1004,4 hPa 0,1 l/m 14,9 km/h (3 Bft) 0 min 8,7 km/h (2 Bft)
12.05.2010 01:13 14,9 C 5,9 C 0,0 UV-I 0,0 C 54 % 94 % 0 % 1004,5 hPa 0,0 l/m 13,7 km/h (3 Bft) 0 min 8,4 km/h (2 Bft)
12.05.2010 01:18 15,0 C 5,9 C 0,0 UV-I 0,0 C 54 % 94 % 0 % 1004,5 hPa 0,0 l/m 13,3 km/h (3 Bft) 0 min 14,8 km/h (3 Bft)
12.05.2010 01:23 15,0 C 5,8 C 0,0 UV-I 0,0 C 54 % 93 % 0 % 1004,5 hPa 0,1 l/m 13,7 km/h (3 Bft) 0 min 12,9 km/h (3 Bft)
12.05.2010 01:28 15,0 C 5,7 C 0,0 UV-I 0,0 C 54 % 93 % 0 % 1004,5 hPa 0,0 l/m 11,2 km/h (2 Bft) 0 min 14,5 km/h (3 Bft)
12.05.2010 01:33 15,0 C 5,7 C 0,0 UV-I 0,0 C 54 % 93 % 0 % 1004,6 hPa 0,1 l/m 10,8 km/h (2 Bft) 0 min 18,7 km/h (3 Bft)
12.05.2010 01:38 15,0 C 5,7 C 0,0 UV-I 0,0 C 54 % 93 % 0 % 1004,6 hPa 0,0 l/m 13,7 km/h (3 Bft) 0 min 11,6 km/h (2 Bft)
12.05.2010 01:43 15,0 C 5,7 C 0,0 UV-I 0,0 C 54 % 93 % 0 % 1004,6 hPa 0,0 l/m 14,5 km/h (3 Bft) 0 min 8,0 km/h (2 Bft)
12.05.2010 01:48 15,0 C 5,6 C 0,0 UV-I 0,0 C 54 % 93 % 0 % 1004,6 hPa 0,2 l/m 12,8 km/h (3 Bft) 0 min 19,3 km/h (3 Bft)
12.05.2010 01:53 15,0 C 5,6 C 0,0 UV-I 0,0 C 54 % 93 % 0 % 1004,5 hPa 0,0 l/m 11,2 km/h (2 Bft) 0 min 14,2 km/h (3 Bft)
12.05.2010 01:58 15,0 C 5,6 C 0,0 UV-I 0,0 C 54 % 93 % 0 % 1004,5 hPa 0,2 l/m 10,4 km/h (2 Bft) 0 min 8,0 km/h (2 Bft)
12.05.2010 02:03 15,0 C 5,7 C 0,0 UV-I 0,0 C 54 % 93 % 0 % 1004,5 hPa 0,1 l/m 12,0 km/h (2 Bft) 0 min 17,1 km/h (3 Bft)
12.05.2010 02:08 15,0 C 5,7 C 0,0 UV-I 0,0 C 54 % 93 % 0 % 1004,5 hPa 0,1 l/m 11,6 km/h (2 Bft) 0 min 5,8 km/h (2 Bft)
12.05.2010 02:13 15,0 C 5,6 C 0,0 UV-I 0,0 C 54 % 93 % 0 % 1004,4 hPa 0,1 l/m 11,2 km/h (2 Bft) 0 min 6,4 km/h (2 Bft)
12.05.2010 02:18 15,0 C 5,6 C 0,0 UV-I 0,0 C 54 % 93 % 0 % 1004,4 hPa 0,0 l/m 10,4 km/h (2 Bft) 0 min 12,6 km/h (3 Bft)
12.05.2010 02:23 15,0 C 5,6 C 0,0 UV-I 0,0 C 54 % 93 % 0 % 1004,4 hPa 0,2 l/m 11,6 km/h (2 Bft) 0 min 6,4 km/h (2 Bft)
12.05.2010 02:28 15,0 C 5,5 C 0,0 UV-I 0,0 C 54 % 93 % 0 % 1004,4 hPa 0,1 l/m 12,8 km/h (3 Bft) 0 min 7,4 km/h (2 Bft)
12.05.2010 02:33 15,0 C 5,5 C 0,0 UV-I 0,0 C 54 % 93 % 0 % 1004,5 hPa 0,1 l/m 12,0 km/h (2 Bft) 0 min 16,4 km/h (3 Bft)
12.05.2010 02:38 14,8 C 5,5 C 0,0 UV-I 0,0 C 54 % 93 % 0 % 1004,5 hPa 0,1 l/m 9,6 km/h (2 Bft) 0 min 9,7 km/h (2 Bft)
12.05.2010 02:43 14,8 C 5,5 C 0,0 UV-I 0,0 C 54 % 93 % 0 % 1004,5 hPa 0,0 l/m 9,6 km/h (2 Bft) 0 min 9,7 km/h (2 Bft)
12.05.2010 02:48 14,8 C 5,5 C 0,0 UV-I 0,0 C 54 % 93 % 0 % 1004,5 hPa 0,1 l/m 9,2 km/h (2 Bft) 0 min 10,9 km/h (2 Bft)
12.05.2010 02:53 14,8 C 5,4 C 0,0 UV-I 0,0 C 54 % 93 % 0 % 1004,3 hPa 0,0 l/m 8,4 km/h (2 Bft) 0 min 8,0 km/h (2 Bft)
12.05.2010 02:58 14,8 C 5,4 C 0,0 UV-I 0,0 C 54 % 93 % 0 % 1004,3 hPa 0,1 l/m 7,2 km/h (2 Bft) 0 min 10,6 km/h (2 Bft)
12.05.2010 03:03 14,8 C 5,5 C 0,0 UV-I 0,0 C 54 % 93 % 0 % 1004,3 hPa 0,0 l/m 7,2 km/h (2 Bft) 0 min 14,8 km/h (3 Bft)
12.05.2010 03:08 14,8 C 5,4 C 0,0 UV-I 0,0 C 54 % 93 % 0 % 1004,3 hPa 0,1 l/m 6,0 km/h (2 Bft) 0 min 9,7 km/h (2 Bft)
12.05.2010 03:13 14,8 C 5,5 C 0,0 UV-I 0,0 C 54 % 93 % 0 % 1004,8 hPa 0,2 l/m 6,0 km/h (2 Bft) 0 min 4,5 km/h (1 Bft)
12.05.2010 03:18 14,9 C 5,5 C 0,0 UV-I 0,0 C 54 % 94 % 0 % 1004,8 hPa 0,0 l/m 7,2 km/h (2 Bft) 0 min 3,9 km/h (1 Bft)
12.05.2010 03:23 14,8 C 5,5 C 0,0 UV-I 0,0 C 54 % 94 % 0 % 1004,8 hPa 0,0 l/m 5,2 km/h (1 Bft) 0 min 5,8 km/h (2 Bft)
12.05.2010 03:28 14,8 C 5,5 C 0,0 UV-I 0,0 C 54 % 94 % 0 % 1004,8 hPa 0,1 l/m 4,0 km/h (1 Bft) 0 min 0,0 km/h (0 Bft)
12.05.2010 03:33 14,8 C 5,5 C 0,0 UV-I 0,0 C 54 % 94 % 0 % 1004,5 hPa 0,0 l/m 5,2 km/h (1 Bft) 0 min 6,8 km/h (2 Bft)
12.05.2010 03:38 14,8 C 5,5 C 0,0 UV-I 0,0 C 54 % 94 % 0 % 1004,5 hPa 0,0 l/m 4,4 km/h (1 Bft) 0 min 7,4 km/h (2 Bft)
12.05.2010 03:43 14,9 C 5,5 C 0,0 UV-I 0,0 C 54 % 94 % 0 % 1004,5 hPa 0,0 l/m 3,2 km/h (1 Bft) 0 min 3,5 km/h (1 Bft)
12.05.2010 03:48 14,9 C 5,5 C 0,0 UV-I 0,0 C 54 % 94 % 0 % 1004,5 hPa 0,0 l/m 2,8 km/h (1 Bft) 0 min 4,2 km/h (1 Bft)
12.05.2010 03:53 14,9 C 5,4 C 0,0 UV-I 0,0 C 54 % 94 % 0 % 1004,9 hPa 0,0 l/m 3,2 km/h (1 Bft) 0 min 12,2 km/h (2 Bft)
12.05.2010 03:58 14,9 C 5,3 C 0,0 UV-I 0,0 C 54 % 94 % 0 % 1004,9 hPa 0,0 l/m 7,6 km/h (2 Bft) 0 min 8,7 km/h (2 Bft)
12.05.2010 04:03 14,8 C 5,3 C 0,0 UV-I 0,0 C 54 % 94 % 0 % 1004,9 hPa 0,0 l/m 7,2 km/h (2 Bft) 0 min 0,0 km/h (0 Bft)
12.05.2010 04:08 14,8 C 5,3 C 0,0 UV-I 0,0 C 54 % 94 % 0 % 1004,9 hPa 0,0 l/m 5,2 km/h (1 Bft) 0 min 0,0 km/h (0 Bft)
12.05.2010 04:13 14,8 C 5,3 C 0,0 UV-I 0,0 C 54 % 94 % 0 % 1005,1 hPa 0,0 l/m 6,0 km/h (2 Bft) 0 min 0,0 km/h (0 Bft)
12.05.2010 04:18 14,8 C 5,3 C 0,0 UV-I 0,0 C 54 % 94 % 0 % 1005,1 hPa 0,0 l/m 4,0 km/h (1 Bft) 0 min 0,0 km/h (0 Bft)
12.05.2010 04:20 14,8 C 5,3 C 0,0 UV-I 0,0 C 54 % 94 % 0 % 1005,1 hPa 0,0 l/m 4,0 km/h (1 Bft) 0 min 0,0 km/h (0 Bft)
12.05.2010 04:22 14,8 C 5,3 C 0,0 UV-I 0,0 C 54 % 94 % 0 % 1005,1 hPa 0,0 l/m 3,6 km/h (1 Bft) 0 min 5,5 km/h (1 Bft)
12.05.2010 04:24 14,8 C 5,3 C 0,0 UV-I 0,0 C 54 % 94 % 0 % 1005,1 hPa 0,0 l/m 2,4 km/h (1 Bft) 0 min 5,1 km/h (1 Bft)
12.05.2010 04:26 14,8 C 5,3 C 0,0 UV-I 0,0 C 54 % 94 % 0 % 1005,1 hPa 0,0 l/m 2,4 km/h (1 Bft) 0 min 3,9 km/h (1 Bft)
12.05.2010 04:28 14,8 C 5,4 C 0,0 UV-I 0,0 C 54 % 94 % 0 % 1005,1 hPa 0,0 l/m 2,0 km/h (1 Bft) 0 min 0,0 km/h (0 Bft)
12.05.2010 04:30 14,8 C 5,3 C 0,0 UV-I 0,0 C 54 % 94 % 0 % 1005,1 hPa 0,0 l/m 2,4 km/h (1 Bft) 0 min 0,0 km/h (0 Bft)
12.05.2010 04:32 14,8 C 5,3 C 0,0 UV-I 0,0 C 54 % 94 % 0 % 1004,9 hPa 0,0 l/m 2,4 km/h (1 Bft) 0 min 0,0 km/h (0 Bft)
12.05.2010 04:34 14,8 C 5,3 C 0,0 UV-I 0,0 C 54 % 94 % 0 % 1004,9 hPa 0,0 l/m 1,6 km/h (1 Bft) 0 min 0,0 km/h (0 Bft)
12.05.2010 04:36 14,8 C 5,4 C 0,0 UV-I 0,0 C 54 % 94 % 0 % 1004,9 hPa 0,0 l/m 1,2 km/h (1 Bft) 0 min 0,0 km/h (0 Bft)
12.05.2010 04:38 14,8 C 5,4 C 0,0 UV-I 0,0 C 54 % 94 % 0 % 1004,9 hPa 0,0 l/m 1,2 km/h (1 Bft) 0 min 4,2 km/h (1 Bft)
12.05.2010 04:40 14,8 C 5,4 C 0,0 UV-I 0,0 C 54 % 94 % 0 % 1004,9 hPa 0,0 l/m 0,4 km/h (0 Bft) 0 min 0,0 km/h (0 Bft)
12.05.2010 04:42 14,8 C 5,4 C 0,0 UV-I 0,0 C 54 % 94 % 0 % 1004,9 hPa 0,0 l/m 0,4 km/h (0 Bft) 0 min 0,0 km/h (0 Bft)
12.05.2010 04:44 14,8 C 5,5 C 0,0 UV-I 0,0 C 54 % 94 % 0 % 1004,9 hPa 0,1 l/m 0,8 km/h (0 Bft) 0 min 3,9 km/h (1 Bft)
12.05.2010 04:46 14,8 C 5,5 C 0,0 UV-I 0,0 C 54 % 94 % 0 % 1004,9 hPa 0,0 l/m 2,0 km/h (1 Bft) 0 min 6,1 km/h (2 Bft)
12.05.2010 04:48 14,8 C 5,5 C 0,0 UV-I 0,0 C 54 % 94 % 0 % 1004,9 hPa 0,0 l/m 2,0 km/h (1 Bft) 0 min 0,0 km/h (0 Bft)
12.05.2010 04:50 14,8 C 5,4 C 0,0 UV-I 0,0 C 54 % 94 % 0 % 1004,9 hPa 0,0 l/m 2,0 km/h (1 Bft) 0 min 9,7 km/h (2 Bft)
12.05.2010 04:52 14,8 C 5,5 C 0,0 UV-I 0,0 C 54 % 94 % 0 % 1005,2 hPa 0,0 l/m 2,4 km/h (1 Bft) 0 min 4,2 km/h (1 Bft)
12.05.2010 04:54 14,8 C 5,5 C 0,0 UV-I 0,0 C 54 % 94 % 0 % 1005,2 hPa 0,0 l/m 2,0 km/h (1 Bft) 0 min 5,1 km/h (1 Bft)
12.05.2010 04:56 14,8 C 5,5 C 0,0 UV-I 0,0 C 54 % 94 % 0 % 1005,2 hPa 0,0 l/m 2,4 km/h (1 Bft) 0 min 6,8 km/h (2 Bft)
12.05.2010 04:58 14,8 C 5,5 C 0,0 UV-I 0,0 C 54 % 94 % 0 % 1005,2 hPa 0,0 l/m 2,4 km/h (1 Bft) 0 min 6,1 km/h (2 Bft)
12.05.2010 05:00 14,8 C 5,5 C 0,0 UV-I 0,0 C 54 % 94 % 0 % 1005,2 hPa 0,0 l/m 2,8 km/h (1 Bft) 0 min 5,5 km/h (1 Bft)
12.05.2010 05:02 14,8 C 5,5 C 0,0 UV-I 0,0 C 54 % 94 % 0 % 1005,2 hPa 0,0 l/m 3,2 km/h (1 Bft) 0 min 0,0 km/h (0 Bft)
12.05.2010 05:04 14,8 C 5,4 C 0,0 UV-I 0,0 C 54 % 94 % 0 % 1005,2 hPa 0,0 l/m 3,2 km/h (1 Bft) 0 min 0,0 km/h (0 Bft)
12.05.2010 05:06 14,8 C 5,4 C 0,0 UV-I 0,0 C 54 % 94 % 0 % 1005,2 hPa 0,0 l/m 2,8 km/h (1 Bft) 0 min 5,5 km/h (1 Bft)
12.05.2010 05:08 14,8 C 5,5 C 0,0 UV-I 0,0 C 54 % 94 % 0 % 1005,2 hPa 0,0 l/m 1,6 km/h (1 Bft) 0 min 0,0 km/h (0 Bft)
12.05.2010 05:10 14,8 C 5,5 C 0,0 UV-I 0,0 C 54 % 94 % 0 % 1005,2 hPa 0,0 l/m 2,0 km/h (1 Bft) 0 min 6,1 km/h (2 Bft)
12.05.2010 05:12 14,8 C 5,5 C 0,0 UV-I 0,0 C 54 % 94 % 0 % 1005,2 hPa 0,0 l/m 0,8 km/h (0 Bft) 0 min 7,4 km/h (2 Bft)
12.05.2010 05:14 14,8 C 5,5 C 0,0 UV-I 0,0 C 54 % 94 % 0 % 1005,2 hPa 0,1 l/m 1,2 km/h (1 Bft) 0 min 6,8 km/h (2 Bft)
12.05.2010 05:16 14,8 C 5,5 C 0,0 UV-I 0,0 C 54 % 94 % 0 % 1005,2 hPa 0,0 l/m 1,2 km/h (1 Bft) 0 min 0,0 km/h (0 Bft)
12.05.2010 05:18 14,8 C 5,5 C 0,0 UV-I 0,0 C 54 % 94 % 0 % 1005,2 hPa 0,0 l/m 1,6 km/h (1 Bft) 0 min 3,2 km/h (1 Bft)
12.05.2010 05:20 14,8 C 5,5 C 0,0 UV-I 0,0 C 54 % 94 % 0 % 1005,2 hPa 0,0 l/m 1,6 km/h (1 Bft) 0 min 0,0 km/h (0 Bft)
12.05.2010 05:22 14,8 C 5,5 C 0,0 UV-I 0,0 C 54 % 94 % 0 % 1005,2 hPa 0,0 l/m 1,2 km/h (1 Bft) 0 min 0,0 km/h (0 Bft)
12.05.2010 05:24 14,8 C 5,5 C 0,0 UV-I 0,0 C 54 % 94 % 0 % 1005,2 hPa 0,0 l/m 1,2 km/h (1 Bft) 0 min 0,0 km/h (0 Bft)
12.05.2010 05:26 14,8 C 5,5 C 0,0 UV-I 0,0 C 54 % 94 % 0 % 1005,2 hPa 0,0 l/m 1,2 km/h (1 Bft) 0 min 3,9 km/h (1 Bft)
12.05.2010 05:28 14,8 C 5,5 C 0,0 UV-I 0,0 C 54 % 94 % 0 % 1005,2 hPa 0,0 l/m 1,6 km/h (1 Bft) 0 min 5,1 km/h (1 Bft)
12.05.2010 05:30 14,8 C 5,6 C 0,0 UV-I 0,0 C 54 % 94 % 0 % 1005,2 hPa 0,0 l/m 1,6 km/h (1 Bft) 0 min 0,0 km/h (0 Bft)
12.05.2010 05:32 14,8 C 5,6 C 0,0 UV-I 0,0 C 54 % 94 % 0 % 1005,3 hPa 0,0 l/m 1,6 km/h (1 Bft) 0 min 5,8 km/h (2 Bft)
12.05.2010 05:34 14,8 C 5,6 C 0,0 UV-I 0,0 C 54 % 94 % 0 % 1005,3 hPa 0,0 l/m 1,6 km/h (1 Bft) 0 min 3,5 km/h (1 Bft)
12.05.2010 05:36 14,8 C 5,6 C 0,0 UV-I 0,0 C 54 % 94 % 0 % 1005,3 hPa 0,0 l/m 2,0 km/h (1 Bft) 0 min 0,0 km/h (0 Bft)
12.05.2010 05:38 14,8 C 5,6 C 0,0 UV-I 0,0 C 54 % 94 % 0 % 1005,3 hPa 0,0 l/m 1,6 km/h (1 Bft) 0 min 0,0 km/h (0 Bft)
12.05.2010 05:40 14,8 C 5,6 C 0,0 UV-I 0,0 C 54 % 94 % 0 % 1005,3 hPa 0,0 l/m 2,0 km/h (1 Bft) 0 min 7,4 km/h (2 Bft)
12.05.2010 05:42 14,8 C 5,6 C 0,0 UV-I 0,0 C 54 % 94 % 0 % 1005,3 hPa 0,0 l/m 2,0 km/h (1 Bft) 0 min 3,2 km/h (1 Bft)
12.05.2010 05:44 14,8 C 5,6 C 0,0 UV-I 0,0 C 54 % 94 % 0 % 1005,3 hPa 0,0 l/m 2,8 km/h (1 Bft) 0 min 12,6 km/h (3 Bft)
12.05.2010 05:46 14,8 C 5,6 C 0,0 UV-I 0,0 C 54 % 94 % 0 % 1005,3 hPa 0,0 l/m 2,8 km/h (1 Bft) 0 min 4,2 km/h (1 Bft)
12.05.2010 05:48 14,8 C 5,6 C 0,0 UV-I 0,0 C 54 % 94 % 0 % 1005,3 hPa 0,0 l/m 2,8 km/h (1 Bft) 0 min 4,5 km/h (1 Bft)
12.05.2010 05:50 14,8 C 5,6 C 0,0 UV-I 0,0 C 54 % 94 % 0 % 1005,3 hPa 0,0 l/m 3,2 km/h (1 Bft) 0 min 0,0 km/h (0 Bft)
12.05.2010 05:52 14,8 C 5,6 C 0,0 UV-I 0,0 C 54 % 94 % 0 % 1005,4 hPa 0,0 l/m 3,6 km/h (1 Bft) 0 min 5,5 km/h (1 Bft)
12.05.2010 05:54 14,8 C 5,6 C 0,0 UV-I 0,0 C 54 % 94 % 0 % 1005,4 hPa 0,0 l/m 4,0 km/h (1 Bft) 0 min 5,8 km/h (2 Bft)
12.05.2010 05:56 14,8 C 5,6 C 0,0 UV-I 0,0 C 54 % 94 % 0 % 1005,4 hPa 0,0 l/m 2,8 km/h (1 Bft) 0 min 8,7 km/h (2 Bft)
12.05.2010 05:58 14,8 C 5,7 C 0,0 UV-I 0,0 C 54 % 94 % 0 % 1005,4 hPa 0,0 l/m 3,6 km/h (1 Bft) 0 min 5,5 km/h (1 Bft)
12.05.2010 06:00 14,8 C 5,6 C 0,0 UV-I 0,0 C 54 % 94 % 0 % 1005,4 hPa 0,0 l/m 3,2 km/h (1 Bft) 0 min 0,0 km/h (0 Bft)
12.05.2010 06:02 14,8 C 5,7 C 0,0 UV-I 0,0 C 54 % 94 % 0 % 1005,4 hPa 0,0 l/m 3,6 km/h (1 Bft) 0 min 6,4 km/h (2 Bft)
12.05.2010 06:04 14,8 C 5,7 C 0,0 UV-I 0,0 C 54 % 94 % 0 % 1005,4 hPa 0,0 l/m 3,6 km/h (1 Bft) 0 min 6,4 km/h (2 Bft)
12.05.2010 06:06 14,8 C 5,6 C 0,0 UV-I 0,0 C 54 % 94 % 0 % 1005,4 hPa 0,1 l/m 4,0 km/h (1 Bft) 0 min 4,2 km/h (1 Bft)
12.05.2010 06:08 14,8 C 5,6 C 0,0 UV-I 0,0 C 54 % 94 % 0 % 1005,4 hPa 0,0 l/m 4,0 km/h (1 Bft) 0 min 5,5 km/h (1 Bft)
12.05.2010 06:10 14,8 C 5,6 C 0,0 UV-I 0,0 C 54 % 94 % 0 % 1005,4 hPa 0,0 l/m 4,4 km/h (1 Bft) 0 min 9,7 km/h (2 Bft)
12.05.2010 06:12 14,8 C 5,6 C 0,0 UV-I 0,0 C 54 % 94 % 0 % 1005,8 hPa 0,0 l/m 4,0 km/h (1 Bft) 0 min 0,0 km/h (0 Bft)
12.05.2010 06:14 14,8 C 5,6 C 0,0 UV-I 0,0 C 54 % 94 % 0 % 1005,8 hPa 0,0 l/m 3,2 km/h (1 Bft) 0 min 0,0 km/h (0 Bft)
12.05.2010 06:16 14,8 C 5,6 C 0,0 UV-I 0,0 C 54 % 94 % 0 % 1005,8 hPa 0,0 l/m 3,6 km/h (1 Bft) 0 min 9,7 km/h (2 Bft)
12.05.2010 06:18 14,8 C 5,6 C 0,0 UV-I 0,0 C 54 % 94 % 0 % 1005,8 hPa 0,0 l/m 2,8 km/h (1 Bft) 0 min 6,4 km/h (2 Bft)
12.05.2010 06:20 14,8 C 5,5 C 0,0 UV-I 0,0 C 54 % 94 % 0 % 1005,8 hPa 0,0 l/m 2,8 km/h (1 Bft) 0 min 9,3 km/h (2 Bft)
12.05.2010 06:22 14,8 C 5,6 C 0,0 UV-I 0,0 C 54 % 94 % 0 % 1005,8 hPa 0,0 l/m 2,8 km/h (1 Bft) 0 min 5,5 km/h (1 Bft)
12.05.2010 06:24 14,8 C 5,6 C 0,0 UV-I 0,0 C 54 % 94 % 0 % 1005,8 hPa 0,0 l/m 2,8 km/h (1 Bft) 0 min 0,0 km/h (0 Bft)
12.05.2010 06:26 14,8 C 5,6 C 0,0 UV-I 0,0 C 54 % 94 % 0 % 1005,8 hPa 0,0 l/m 3,2 km/h (1 Bft) 0 min 6,1 km/h (2 Bft)
12.05.2010 06:28 14,8 C 5,6 C 0,0 UV-I 0,0 C 54 % 94 % 0 % 1005,8 hPa 0,0 l/m 3,6 km/h (1 Bft) 0 min 7,1 km/h (2 Bft)
12.05.2010 06:30 14,8 C 5,6 C 0,0 UV-I 0,0 C 54 % 94 % 0 % 1005,8 hPa 0,0 l/m 4,4 km/h (1 Bft) 0 min 4,2 km/h (1 Bft)
12.05.2010 06:32 14,8 C 5,6 C 0,0 UV-I 0,0 C 54 % 94 % 0 % 1005,7 hPa 0,0 l/m 4,0 km/h (1 Bft) 0 min 5,5 km/h (1 Bft)
12.05.2010 06:34 14,8 C 5,5 C 0,0 UV-I 0,0 C 54 % 94 % 0 % 1005,7 hPa 0,0 l/m 4,8 km/h (1 Bft) 0 min 3,9 km/h (1 Bft)
12.05.2010 06:36 14,8 C 5,5 C 0,0 UV-I 0,0 C 54 % 94 % 0 % 1005,7 hPa 0,0 l/m 5,6 km/h (1 Bft) 0 min 10,9 km/h (2 Bft)
12.05.2010 06:38 14,8 C 5,5 C 0,0 UV-I 0,0 C 54 % 94 % 0 % 1005,7 hPa 0,0 l/m 5,2 km/h (1 Bft) 0 min 7,1 km/h (2 Bft)
12.05.2010 06:40 14,8 C 5,5 C 0,0 UV-I 0,0 C 54 % 94 % 0 % 1005,7 hPa 0,0 l/m 4,8 km/h (1 Bft) 0 min 6,4 km/h (2 Bft)
12.05.2010 06:42 14,8 C 5,5 C 0,0 UV-I 0,0 C 54 % 94 % 0 % 1005,7 hPa 0,0 l/m 5,2 km/h (1 Bft) 0 min 5,1 km/h (1 Bft)
12.05.2010 06:44 14,8 C 5,5 C 0,0 UV-I 0,0 C 54 % 94 % 0 % 1005,7 hPa 0,0 l/m 4,8 km/h (1 Bft) 0 min 7,4 km/h (2 Bft)
12.05.2010 06:46 14,8 C 5,5 C 0,0 UV-I 0,0 C 54 % 94 % 0 % 1005,7 hPa 0,0 l/m 4,4 km/h (1 Bft) 0 min 6,1 km/h (2 Bft)
12.05.2010 06:48 14,8 C 5,5 C 0,0 UV-I 0,0 C 54 % 94 % 0 % 1005,7 hPa 0,0 l/m 5,2 km/h (1 Bft) 0 min 8,7 km/h (2 Bft)
12.05.2010 06:50 14,8 C 5,5 C 0,0 UV-I 0,0 C 54 % 94 % 0 % 1005,7 hPa 0,0 l/m 5,2 km/h (1 Bft) 0 min 6,4 km/h (2 Bft)
12.05.2010 06:52 14,8 C 5,5 C 0,0 UV-I 0,0 C 54 % 94 % 0 % 1005,9 hPa 0,0 l/m 4,8 km/h (1 Bft) 0 min 8,7 km/h (2 Bft)
12.05.2010 06:54 14,8 C 5,5 C 0,0 UV-I 0,0 C 54 % 94 % 0 % 1005,9 hPa 0,0 l/m 5,2 km/h (1 Bft) 0 min 7,7 km/h (2 Bft)
12.05.2010 06:56 14,8 C 5,5 C 0,0 UV-I 0,0 C 54 % 94 % 0 % 1005,9 hPa 0,0 l/m 5,2 km/h (1 Bft) 0 min 7,1 km/h (2 Bft)
12.05.2010 06:58 14,8 C 5,5 C 0,0 UV-I 0,0 C 54 % 95 % 0 % 1005,9 hPa 0,0 l/m 4,8 km/h (1 Bft) 0 min 7,4 km/h (2 Bft)
12.05.2010 07:00 14,8 C 5,5 C 0,0 UV-I 0,0 C 54 % 95 % 0 % 1005,9 hPa 0,0 l/m 4,4 km/h (1 Bft) 0 min 3,9 km/h (1 Bft)
12.05.2010 07:02 14,8 C 5,5 C 0,0 UV-I 0,0 C 54 % 94 % 0 % 1005,9 hPa 0,0 l/m 4,0 km/h (1 Bft) 0 min 0,0 km/h (0 Bft)
12.05.2010 07:04 14,8 C 5,5 C 0,0 UV-I 0,0 C 54 % 94 % 0 % 1005,9 hPa 0,0 l/m 4,4 km/h (1 Bft) 0 min 10,6 km/h (2 Bft)
12.05.2010 07:06 14,8 C 5,5 C 0,0 UV-I 0,0 C 54 % 94 % 0 % 1005,9 hPa 0,0 l/m 5,2 km/h (1 Bft) 0 min 8,4 km/h (2 Bft)
12.05.2010 07:08 14,8 C 5,5 C 0,0 UV-I 0,0 C 55 % 94 % 0 % 1005,9 hPa 0,0 l/m 5,2 km/h (1 Bft) 0 min 4,5 km/h (1 Bft)
12.05.2010 07:10 14,8 C 5,5 C 0,0 UV-I 0,0 C 54 % 95 % 0 % 1005,9 hPa 0,0 l/m 4,8 km/h (1 Bft) 0 min 3,5 km/h (1 Bft)
12.05.2010 07:12 14,8 C 5,5 C 0,0 UV-I 0,0 C 55 % 95 % 0 % 1005,9 hPa 0,0 l/m 6,0 km/h (2 Bft) 0 min 12,2 km/h (2 Bft)
12.05.2010 07:14 14,8 C 5,5 C 0,0 UV-I 0,0 C 55 % 95 % 0 % 1005,9 hPa 0,0 l/m 6,8 km/h (2 Bft) 0 min 5,8 km/h (2 Bft)
12.05.2010 07:16 14,8 C 5,5 C 0,0 UV-I 0,0 C 55 % 95 % 0 % 1005,9 hPa 0,0 l/m 6,0 km/h (2 Bft) 0 min 5,1 km/h (1 Bft)
12.05.2010 07:18 14,8 C 5,4 C 0,0 UV-I 0,0 C 55 % 95 % 0 % 1005,9 hPa 0,0 l/m 5,2 km/h (1 Bft) 0 min 4,8 km/h (1 Bft)
12.05.2010 07:20 14,8 C 5,5 C 0,0 UV-I 0,0 C 55 % 95 % 0 % 1005,9 hPa 0,0 l/m 5,6 km/h (1 Bft) 0 min 5,1 km/h (1 Bft)
12.05.2010 07:22 14,8 C 5,5 C 0,0 UV-I 0,0 C 55 % 95 % 0 % 1005,9 hPa 0,0 l/m 5,2 km/h (1 Bft) 0 min 4,8 km/h (1 Bft)
12.05.2010 07:24 14,8 C 5,6 C 0,0 UV-I 0,0 C 55 % 95 % 0 % 1005,9 hPa 0,0 l/m 4,4 km/h (1 Bft) 0 min 6,4 km/h (2 Bft)
12.05.2010 07:26 14,8 C 5,5 C 0,0 UV-I 0,0 C 55 % 95 % 0 % 1005,9 hPa 0,0 l/m 4,0 km/h (1 Bft) 0 min 3,9 km/h (1 Bft)
12.05.2010 07:28 14,8 C 5,5 C 0,0 UV-I 0,0 C 55 % 95 % 0 % 1005,9 hPa 0,0 l/m 4,8 km/h (1 Bft) 0 min 7,1 km/h (2 Bft)
12.05.2010 07:30 14,8 C 5,6 C 0,0 UV-I 0,0 C 55 % 95 % 0 % 1005,9 hPa 0,0 l/m 5,2 km/h (1 Bft) 0 min 9,7 km/h (2 Bft)
12.05.2010 07:32 14,8 C 5,6 C 0,0 UV-I 0,0 C 55 % 95 % 0 % 1006,5 hPa 0,0 l/m 4,8 km/h (1 Bft) 0 min 3,2 km/h (1 Bft)
12.05.2010 07:34 14,6 C 5,6 C 0,0 UV-I 0,0 C 55 % 95 % 0 % 1006,5 hPa 0,0 l/m 4,4 km/h (1 Bft) 0 min 5,1 km/h (1 Bft)
12.05.2010 07:36 14,6 C 5,6 C 0,0 UV-I 0,0 C 55 % 95 % 0 % 1006,5 hPa 0,0 l/m 3,6 km/h (1 Bft) 0 min 4,5 km/h (1 Bft)
12.05.2010 07:38 14,8 C 5,6 C 0,0 UV-I 0,0 C 55 % 95 % 0 % 1006,5 hPa 0,0 l/m 3,2 km/h (1 Bft) 0 min 3,5 km/h (1 Bft)
12.05.2010 07:40 14,8 C 5,6 C 0,0 UV-I 0,0 C 55 % 95 % 0 % 1006,5 hPa 0,0 l/m 2,4 km/h (1 Bft) 0 min 0,0 km/h (0 Bft)
12.05.2010 07:42 14,8 C 5,7 C 0,0 UV-I 0,0 C 55 % 95 % 0 % 1006,5 hPa 0,0 l/m 2,4 km/h (1 Bft) 0 min 6,4 km/h (2 Bft)
12.05.2010 07:44 14,8 C 5,6 C 0,0 UV-I 0,0 C 55 % 95 % 0 % 1006,5 hPa 0,0 l/m 2,4 km/h (1 Bft) 0 min 0,0 km/h (0 Bft)
12.05.2010 07:46 14,8 C 5,6 C 0,0 UV-I 0,0 C 55 % 95 % 0 % 1006,5 hPa 0,0 l/m 2,8 km/h (1 Bft) 0 min 8,7 km/h (2 Bft)
12.05.2010 07:48 14,8 C 5,6 C 0,0 UV-I 0,0 C 55 % 95 % 0 % 1006,5 hPa 0,0 l/m 4,4 km/h (1 Bft) 0 min 9,0 km/h (2 Bft)
12.05.2010 07:50 14,8 C 5,5 C 0,0 UV-I 0,0 C 55 % 95 % 0 % 1006,5 hPa 0,0 l/m 5,2 km/h (1 Bft) 0 min 4,5 km/h (1 Bft)
12.05.2010 07:52 14,8 C 5,5 C 0,2 UV-I 0,0 C 55 % 95 % 0 % 1006,6 hPa 0,0 l/m 5,6 km/h (1 Bft) 0 min 8,4 km/h (2 Bft)
12.05.2010 07:54 14,8 C 5,5 C 0,2 UV-I 0,0 C 55 % 95 % 0 % 1006,6 hPa 0,0 l/m 5,6 km/h (1 Bft) 0 min 7,4 km/h (2 Bft)
12.05.2010 07:56 14,6 C 5,5 C 0,2 UV-I 0,0 C 55 % 95 % 0 % 1006,6 hPa 0,0 l/m 5,2 km/h (1 Bft) 0 min 0,0 km/h (0 Bft)
12.05.2010 07:58 14,6 C 5,6 C 0,2 UV-I 0,0 C 55 % 95 % 0 % 1006,6 hPa 0,0 l/m 4,8 km/h (1 Bft) 0 min 5,5 km/h (1 Bft)
12.05.2010 08:00 14,8 C 5,6 C 0,2 UV-I 0,0 C 55 % 95 % 0 % 1006,6 hPa 0,0 l/m 4,4 km/h (1 Bft) 0 min 5,5 km/h (1 Bft)
12.05.2010 08:02 14,8 C 5,6 C 0,3 UV-I 0,0 C 55 % 95 % 0 % 1006,6 hPa 0,0 l/m 3,6 km/h (1 Bft) 0 min 5,5 km/h (1 Bft)
12.05.2010 08:04 14,8 C 5,6 C 0,3 UV-I 0,0 C 55 % 95 % 0 % 1006,6 hPa 0,0 l/m 3,6 km/h (1 Bft) 0 min 6,8 km/h (2 Bft)
12.05.2010 08:06 14,8 C 5,6 C 0,4 UV-I 0,0 C 55 % 95 % 0 % 1006,6 hPa 0,0 l/m 3,6 km/h (1 Bft) 0 min 4,2 km/h (1 Bft)
12.05.2010 08:08 14,8 C 5,6 C 0,4 UV-I 0,0 C 55 % 95 % 0 % 1006,6 hPa 0,0 l/m 4,0 km/h (1 Bft) 0 min 5,5 km/h (1 Bft)
12.05.2010 08:10 14,8 C 5,6 C 0,4 UV-I 0,0 C 55 % 95 % 0 % 1006,6 hPa 0,0 l/m 4,0 km/h (1 Bft) 0 min 4,5 km/h (1 Bft)
12.05.2010 08:12 14,8 C 5,6 C 0,4 UV-I 0,0 C 55 % 95 % 0 % 1006,4 hPa 0,0 l/m 4,4 km/h (1 Bft) 0 min 10,9 km/h (2 Bft)
12.05.2010 08:14 14,6 C 5,6 C 0,4 UV-I 0,0 C 55 % 95 % 0 % 1006,4 hPa 0,0 l/m 4,4 km/h (1 Bft) 0 min 3,5 km/h (1 Bft)
12.05.2010 08:16 14,8 C 5,6 C 0,2 UV-I 0,0 C 55 % 95 % 0 % 1006,4 hPa 0,0 l/m 4,4 km/h (1 Bft) 0 min 4,8 km/h (1 Bft)
12.05.2010 08:18 14,8 C 5,7 C 0,2 UV-I 0,0 C 55 % 95 % 0 % 1006,4 hPa 0,0 l/m 4,4 km/h (1 Bft) 0 min 0,0 km/h (0 Bft)
12.05.2010 08:20 14,8 C 5,7 C 0,2 UV-I 0,0 C 55 % 95 % 0 % 1006,4 hPa 0,0 l/m 3,6 km/h (1 Bft) 0 min 0,0 km/h (0 Bft)
12.05.2010 08:22 14,8 C 5,7 C 0,0 UV-I 0,0 C 55 % 95 % 0 % 1006,4 hPa 0,0 l/m 3,2 km/h (1 Bft) 0 min 6,8 km/h (2 Bft)
12.05.2010 08:24 14,8 C 5,7 C 0,0 UV-I 0,0 C 55 % 95 % 0 % 1006,4 hPa 0,0 l/m 2,8 km/h (1 Bft) 0 min 0,0 km/h (0 Bft)
12.05.2010 08:26 14,8 C 5,7 C 0,0 UV-I 0,0 C 55 % 95 % 0 % 1006,4 hPa 0,0 l/m 2,8 km/h (1 Bft) 0 min 3,5 km/h (1 Bft)
12.05.2010 08:28 14,8 C 5,7 C 0,0 UV-I 0,0 C 55 % 95 % 0 % 1006,4 hPa 0,0 l/m 2,0 km/h (1 Bft) 0 min 7,1 km/h (2 Bft)
12.05.2010 08:30 14,8 C 5,8 C 0,0 UV-I 0,0 C 55 % 95 % 0 % 1006,4 hPa 0,0 l/m 2,4 km/h (1 Bft) 0 min 3,2 km/h (1 Bft)
12.05.2010 08:32 14,8 C 5,9 C 0,0 UV-I 0,0 C 55 % 95 % 0 % 1007,0 hPa 0,0 l/m 2,4 km/h (1 Bft) 0 min 4,5 km/h (1 Bft)
12.05.2010 08:34 14,8 C 5,7 C 0,0 UV-I 0,0 C 55 % 95 % 0 % 1007,0 hPa 0,0 l/m 2,0 km/h (1 Bft) 0 min 3,5 km/h (1 Bft)
12.05.2010 08:36 14,8 C 5,7 C 0,0 UV-I 0,0 C 55 % 95 % 0 % 1007,0 hPa 0,0 l/m 3,2 km/h (1 Bft) 0 min 5,8 km/h (2 Bft)
12.05.2010 08:38 14,8 C 5,7 C 0,0 UV-I 0,0 C 55 % 95 % 0 % 1007,0 hPa 0,0 l/m 4,0 km/h (1 Bft) 0 min 9,7 km/h (2 Bft)
12.05.2010 08:40 14,8 C 5,7 C 0,0 UV-I 0,0 C 55 % 95 % 0 % 1007,0 hPa 0,0 l/m 4,0 km/h (1 Bft) 0 min 4,2 km/h (1 Bft)
12.05.2010 08:42 14,8 C 5,7 C 0,1 UV-I 0,0 C 55 % 95 % 0 % 1007,0 hPa 0,0 l/m 4,4 km/h (1 Bft) 0 min 3,5 km/h (1 Bft)
12.05.2010 08:44 14,8 C 5,7 C 0,1 UV-I 0,0 C 55 % 95 % 0 % 1007,0 hPa 0,0 l/m 4,8 km/h (1 Bft) 0 min 7,1 km/h (2 Bft)
12.05.2010 08:46 14,8 C 5,9 C 0,0 UV-I 0,0 C 55 % 95 % 0 % 1007,0 hPa 0,0 l/m 4,8 km/h (1 Bft) 0 min 4,2 km/h (1 Bft)
12.05.2010 08:48 14,8 C 5,7 C 0,0 UV-I 0,0 C 55 % 95 % 0 % 1007,0 hPa 0,0 l/m 4,4 km/h (1 Bft) 0 min 9,0 km/h (2 Bft)
12.05.2010 08:50 14,8 C 5,8 C 0,0 UV-I 0,0 C 55 % 95 % 0 % 1007,0 hPa 0,0 l/m 4,0 km/h (1 Bft) 0 min 5,5 km/h (1 Bft)
12.05.2010 08:52 14,8 C 5,9 C 0,0 UV-I 0,0 C 55 % 95 % 0 % 1007,2 hPa 0,0 l/m 4,4 km/h (1 Bft) 0 min 7,1 km/h (2 Bft)
12.05.2010 08:54 14,8 C 5,8 C 0,0 UV-I 0,0 C 55 % 95 % 0 % 1007,2 hPa 0,1 l/m 4,0 km/h (1 Bft) 0 min 4,8 km/h (1 Bft)
12.05.2010 08:56 14,8 C 5,9 C 0,1 UV-I 0,0 C 55 % 95 % 0 % 1007,2 hPa 0,0 l/m 3,6 km/h (1 Bft) 0 min 3,2 km/h (1 Bft)
12.05.2010 08:58 14,8 C 5,8 C 0,1 UV-I 0,0 C 55 % 95 % 0 % 1007,2 hPa 0,0 l/m 3,6 km/h (1 Bft) 0 min 4,5 km/h (1 Bft)
12.05.2010 09:00 14,8 C 5,8 C 0,1 UV-I 0,0 C 55 % 95 % 0 % 1007,2 hPa 0,0 l/m 3,6 km/h (1 Bft) 0 min 5,5 km/h (1 Bft)
12.05.2010 09:02 14,8 C 5,9 C 0,1 UV-I 0,0 C 55 % 95 % 0 % 1007,2 hPa 0,0 l/m 3,6 km/h (1 Bft) 0 min 0,0 km/h (0 Bft)
12.05.2010 09:04 14,8 C 5,9 C 0,1 UV-I 0,0 C 55 % 95 % 0 % 1007,2 hPa 0,0 l/m 3,2 km/h (1 Bft) 0 min 4,5 km/h (1 Bft)
12.05.2010 09:06 14,8 C 5,9 C 0,2 UV-I 0,0 C 55 % 95 % 0 % 1007,2 hPa 0,0 l/m 3,6 km/h (1 Bft) 0 min 5,8 km/h (2 Bft)
12.05.2010 09:08 14,8 C 5,9 C 0,2 UV-I 0,0 C 55 % 95 % 0 % 1007,2 hPa 0,0 l/m 4,0 km/h (1 Bft) 0 min 6,4 km/h (2 Bft)
12.05.2010 09:10 14,8 C 5,9 C 0,2 UV-I 0,0 C 55 % 95 % 0 % 1007,2 hPa 0,0 l/m 4,0 km/h (1 Bft) 0 min 6,8 km/h (2 Bft)
12.05.2010 09:12 14,8 C 5,9 C 0,2 UV-I 0,0 C 55 % 95 % 0 % 1007,4 hPa 0,0 l/m 3,6 km/h (1 Bft) 0 min 9,0 km/h (2 Bft)
12.05.2010 09:14 14,8 C 5,9 C 0,2 UV-I 0,0 C 55 % 95 % 0 % 1007,4 hPa 0,0 l/m 4,4 km/h (1 Bft) 0 min 3,9 km/h (1 Bft)
12.05.2010 09:16 14,8 C 5,9 C 0,2 UV-I 0,0 C 55 % 95 % 0 % 1007,4 hPa 0,0 l/m 4,4 km/h (1 Bft) 0 min 4,8 km/h (1 Bft)
12.05.2010 09:18 14,8 C 5,9 C 0,2 UV-I 0,0 C 55 % 95 % 0 % 1007,4 hPa 0,0 l/m 4,0 km/h (1 Bft) 0 min 0,0 km/h (0 Bft)
12.05.2010 09:20 14,8 C 6,0 C 0,2 UV-I 0,0 C 55 % 95 % 0 % 1007,4 hPa 0,0 l/m 2,8 km/h (1 Bft) 0 min 5,8 km/h (2 Bft)
12.05.2010 09:22 14,8 C 6,0 C 0,3 UV-I 0,0 C 55 % 95 % 0 % 1007,4 hPa 0,0 l/m 3,6 km/h (1 Bft) 0 min 8,7 km/h (2 Bft)
12.05.2010 09:24 14,8 C 6,0 C 0,3 UV-I 0,0 C 55 % 95 % 0 % 1007,4 hPa 0,0 l/m 2,8 km/h (1 Bft) 0 min 3,2 km/h (1 Bft)
12.05.2010 09:26 14,8 C 6,0 C 0,4 UV-I 0,0 C 55 % 95 % 0 % 1007,4 hPa 0,0 l/m 2,8 km/h (1 Bft) 0 min 5,1 km/h (1 Bft)
12.05.2010 09:28 14,8 C 5,9 C 0,4 UV-I 0,1 C 55 % 95 % 3 % 1007,4 hPa 0,0 l/m 2,8 km/h (1 Bft) 0 min 8,0 km/h (2 Bft)
12.05.2010 09:30 14,8 C 6,0 C 0,4 UV-I 0,0 C 55 % 95 % 0 % 1007,4 hPa 0,0 l/m 4,0 km/h (1 Bft) 0 min 3,2 km/h (1 Bft)
12.05.2010 09:32 14,8 C 6,0 C 0,2 UV-I 0,0 C 55 % 95 % 0 % 1007,6 hPa 0,0 l/m 4,0 km/h (1 Bft) 0 min 0,0 km/h (0 Bft)
12.05.2010 09:34 14,8 C 6,0 C 0,2 UV-I 0,0 C 55 % 95 % 0 % 1007,6 hPa 0,0 l/m 3,6 km/h (1 Bft) 0 min 7,4 km/h (2 Bft)
12.05.2010 09:36 14,8 C 6,1 C 0,2 UV-I 0,0 C 55 % 95 % 0 % 1007,6 hPa 0,0 l/m 3,6 km/h (1 Bft) 0 min 0,0 km/h (0 Bft)
12.05.2010 09:38 14,8 C 6,1 C 0,2 UV-I 0,0 C 55 % 95 % 0 % 1007,6 hPa 0,0 l/m 4,0 km/h (1 Bft) 0 min 7,4 km/h (2 Bft)
12.05.2010 09:40 14,8 C 6,0 C 0,2 UV-I 0,0 C 55 % 95 % 0 % 1007,6 hPa 0,0 l/m 3,6 km/h (1 Bft) 0 min 10,3 km/h (2 Bft)
12.05.2010 09:42 14,8 C 6,0 C 0,3 UV-I 0,0 C 55 % 95 % 0 % 1007,6 hPa 0,0 l/m 4,4 km/h (1 Bft) 0 min 10,6 km/h (2 Bft)
12.05.2010 09:44 14,8 C 6,0 C 0,3 UV-I 0,0 C 55 % 95 % 0 % 1007,6 hPa 0,0 l/m 5,2 km/h (1 Bft) 0 min 0,0 km/h (0 Bft)
12.05.2010 09:46 14,8 C 6,0 C 0,4 UV-I 0,0 C 55 % 95 % 0 % 1007,6 hPa 0,0 l/m 4,8 km/h (1 Bft) 0 min 5,1 km/h (1 Bft)
12.05.2010 09:48 14,8 C 6,0 C 0,4 UV-I 0,0 C 55 % 95 % 0 % 1007,6 hPa 0,0 l/m 5,2 km/h (1 Bft) 0 min 4,2 km/h (1 Bft)
12.05.2010 09:50 14,8 C 6,0 C 0,4 UV-I 0,0 C 55 % 95 % 0 % 1007,6 hPa 0,0 l/m 5,2 km/h (1 Bft) 0 min 0,0 km/h (0 Bft)
12.05.2010 09:52 14,8 C 6,0 C 0,5 UV-I 0,0 C 55 % 95 % 0 % 1008,1 hPa 0,0 l/m 4,4 km/h (1 Bft) 0 min 5,5 km/h (1 Bft)
12.05.2010 09:54 14,8 C 6,1 C 0,5 UV-I 0,0 C 55 % 95 % 0 % 1008,1 hPa 0,0 l/m 4,0 km/h (1 Bft) 0 min 5,1 km/h (1 Bft)
12.05.2010 09:56 14,8 C 6,0 C 0,5 UV-I 0,0 C 55 % 95 % 0 % 1008,1 hPa 0,0 l/m 4,4 km/h (1 Bft) 0 min 4,2 km/h (1 Bft)
12.05.2010 09:58 14,8 C 6,0 C 0,5 UV-I 0,0 C 55 % 95 % 0 % 1008,1 hPa 0,0 l/m 4,0 km/h (1 Bft) 0 min 0,0 km/h (0 Bft)
12.05.2010 10:00 14,8 C 6,0 C 0,5 UV-I 0,1 C 55 % 95 % 3 % 1008,1 hPa 0,0 l/m 3,2 km/h (1 Bft) 0 min 13,2 km/h (3 Bft)
12.05.2010 10:02 14,8 C 6,0 C 0,5 UV-I 0,2 C 55 % 95 % 6 % 1008,1 hPa 0,0 l/m 3,6 km/h (1 Bft) 0 min 3,2 km/h (1 Bft)
12.05.2010 10:04 14,8 C 6,0 C 0,5 UV-I 0,1 C 55 % 95 % 3 % 1008,1 hPa 0,0 l/m 3,2 km/h (1 Bft) 0 min 3,9 km/h (1 Bft)
12.05.2010 10:06 14,8 C 6,0 C 0,1 UV-I 0,2 C 55 % 95 % 6 % 1008,1 hPa 0,0 l/m 2,8 km/h (1 Bft) 0 min 3,9 km/h (1 Bft)
12.05.2010 10:08 14,8 C 6,0 C 0,1 UV-I 0,2 C 55 % 95 % 6 % 1008,1 hPa 0,0 l/m 3,2 km/h (1 Bft) 0 min 7,4 km/h (2 Bft)
12.05.2010 10:10 14,8 C 6,0 C 0,1 UV-I 0,2 C 55 % 95 % 6 % 1008,1 hPa 0,0 l/m 4,8 km/h (1 Bft) 0 min 4,5 km/h (1 Bft)
12.05.2010 10:12 14,8 C 6,1 C 0,1 UV-I 0,1 C 55 % 95 % 3 % 1008,2 hPa 0,0 l/m 4,4 km/h (1 Bft) 0 min 5,5 km/h (1 Bft)
12.05.2010 10:14 14,8 C 6,1 C 0,1 UV-I 0,0 C 55 % 95 % 0 % 1008,2 hPa 0,0 l/m 4,8 km/h (1 Bft) 0 min 4,8 km/h (1 Bft)
12.05.2010 10:18 14,8 C 6,1 C 0,5 UV-I 0,1 C 55 % 95 % 3 % 1008,2 hPa 0,0 l/m 4,8 km/h (1 Bft) 0 min 12,2 km/h (2 Bft)
12.05.2010 10:20 14,8 C 6,1 C 0,5 UV-I 0,1 C 55 % 94 % 3 % 1008,2 hPa 0,0 l/m 5,2 km/h (1 Bft) 0 min 12,6 km/h (3 Bft)
12.05.2010 10:22 14,8 C 6,0 C 0,5 UV-I 0,2 C 55 % 94 % 6 % 1008,2 hPa 0,0 l/m 6,0 km/h (2 Bft) 0 min 12,6 km/h (3 Bft)
12.05.2010 10:24 14,8 C 6,1 C 0,5 UV-I 0,1 C 55 % 94 % 3 % 1008,2 hPa 0,0 l/m 5,2 km/h (1 Bft) 0 min 0,0 km/h (0 Bft)
12.05.2010 10:26 14,8 C 6,0 C 0,5 UV-I 0,2 C 55 % 94 % 6 % 1008,2 hPa 0,0 l/m 5,2 km/h (1 Bft) 0 min 5,8 km/h (2 Bft)
12.05.2010 10:28 14,8 C 6,0 C 0,5 UV-I 0,3 C 55 % 94 % 9 % 1008,2 hPa 0,0 l/m 4,8 km/h (1 Bft) 0 min 0,0 km/h (0 Bft)
12.05.2010 10:30 14,8 C 6,0 C 0,5 UV-I 0,4 C 55 % 94 % 11 % 1008,2 hPa 0,0 l/m 4,0 km/h (1 Bft) 0 min 8,4 km/h (2 Bft)
12.05.2010 10:32 14,8 C 6,0 C 0,5 UV-I 0,4 C 55 % 94 % 11 % 1008,2 hPa 0,0 l/m 4,0 km/h (1 Bft) 0 min 7,7 km/h (2 Bft)
12.05.2010 10:34 14,8 C 6,0 C 0,5 UV-I 0,4 C 55 % 94 % 11 % 1008,2 hPa 0,0 l/m 4,4 km/h (1 Bft) 0 min 7,7 km/h (2 Bft)
12.05.2010 10:36 14,8 C 6,0 C 0,7 UV-I 0,4 C 55 % 94 % 11 % 1008,2 hPa 0,0 l/m 4,8 km/h (1 Bft) 0 min 3,5 km/h (1 Bft)
12.05.2010 10:40 14,8 C 6,1 C 0,7 UV-I 0,3 C 55 % 94 % 9 % 1008,2 hPa 0,0 l/m 5,6 km/h (1 Bft) 0 min 5,8 km/h (2 Bft)
12.05.2010 10:42 14,8 C 6,1 C 0,8 UV-I 0,3 C 55 % 94 % 9 % 1008,2 hPa 0,0 l/m 4,8 km/h (1 Bft) 0 min 3,9 km/h (1 Bft)
12.05.2010 10:44 14,8 C 6,1 C 0,8 UV-I 0,4 C 55 % 94 % 11 % 1008,2 hPa 0,0 l/m 3,6 km/h (1 Bft) 0 min 6,1 km/h (2 Bft)
12.05.2010 10:46 14,8 C 6,2 C 0,8 UV-I 0,3 C 55 % 94 % 9 % 1008,2 hPa 0,0 l/m 2,8 km/h (1 Bft) 0 min 4,8 km/h (1 Bft)
12.05.2010 10:48 14,8 C 6,1 C 0,8 UV-I 0,5 C 55 % 94 % 14 % 1008,2 hPa 0,0 l/m 3,2 km/h (1 Bft) 0 min 6,8 km/h (2 Bft)
12.05.2010 10:52 14,8 C 6,2 C 0,8 UV-I 0,5 C 55 % 94 % 14 % 1008,6 hPa 0,0 l/m 4,0 km/h (1 Bft) 0 min 17,4 km/h (3 Bft)
12.05.2010 10:54 14,8 C 6,3 C 0,8 UV-I 0,4 C 55 % 94 % 11 % 1008,6 hPa 0,0 l/m 5,2 km/h (1 Bft) 0 min 6,1 km/h (2 Bft)
12.05.2010 10:58 14,8 C 6,1 C 0,9 UV-I 0,6 C 55 % 94 % 17 % 1008,6 hPa 0,0 l/m 5,2 km/h (1 Bft) 0 min 3,5 km/h (1 Bft)
12.05.2010 11:00 14,8 C 6,3 C 0,9 UV-I 0,4 C 55 % 94 % 11 % 1008,6 hPa 0,0 l/m 5,2 km/h (1 Bft) 0 min 0,0 km/h (0 Bft)
12.05.2010 11:02 14,8 C 6,3 C 1,0 UV-I 0,4 C 55 % 94 % 11 % 1008,6 hPa 0,0 l/m 5,6 km/h (1 Bft) 0 min 3,9 km/h (1 Bft)
12.05.2010 11:04 14,8 C 6,3 C 1,0 UV-I 0,4 C 55 % 94 % 11 % 1008,6 hPa 0,0 l/m 5,2 km/h (1 Bft) 0 min 3,2 km/h (1 Bft)
12.05.2010 11:06 14,8 C 6,3 C 0,9 UV-I 0,4 C 55 % 94 % 11 % 1008,6 hPa 0,0 l/m 4,8 km/h (1 Bft) 0 min 5,8 km/h (2 Bft)
12.05.2010 11:08 14,8 C 6,2 C 0,9 UV-I 0,5 C 55 % 94 % 14 % 1008,6 hPa 0,0 l/m 5,2 km/h (1 Bft) 0 min 6,8 km/h (2 Bft)
12.05.2010 11:10 14,8 C 6,2 C 0,9 UV-I 0,5 C 55 % 94 % 14 % 1008,6 hPa 0,0 l/m 5,2 km/h (1 Bft) 0 min 10,9 km/h (2 Bft)
12.05.2010 11:12 14,8 C 6,2 C 1,0 UV-I 0,5 C 55 % 94 % 14 % 1008,6 hPa 0,0 l/m 5,2 km/h (1 Bft) 0 min 9,7 km/h (2 Bft)
12.05.2010 11:16 14,8 C 6,3 C 1,0 UV-I 0,4 C 55 % 94 % 11 % 1008,6 hPa 0,0 l/m 5,6 km/h (1 Bft) 0 min 6,1 km/h (2 Bft)
12.05.2010 11:18 14,8 C 6,3 C 1,0 UV-I 0,4 C 55 % 94 % 11 % 1008,6 hPa 0,0 l/m 5,6 km/h (1 Bft) 0 min 5,8 km/h (2 Bft)
12.05.2010 11:20 14,8 C 6,2 C 1,0 UV-I 0,5 C 55 % 94 % 14 % 1008,6 hPa 0,0 l/m 6,4 km/h (2 Bft) 0 min 10,3 km/h (2 Bft)
12.05.2010 11:22 14,8 C 6,3 C 1,1 UV-I 0,4 C 55 % 94 % 11 % 1008,6 hPa 0,0 l/m 6,8 km/h (2 Bft) 0 min 7,7 km/h (2 Bft)
12.05.2010 11:24 14,8 C 6,2 C 1,1 UV-I 0,4 C 55 % 94 % 11 % 1008,6 hPa 0,0 l/m 6,8 km/h (2 Bft) 0 min 4,8 km/h (1 Bft)
12.05.2010 11:26 14,8 C 6,3 C 1,0 UV-I 0,3 C 55 % 94 % 9 % 1008,6 hPa 0,0 l/m 5,6 km/h (1 Bft) 0 min 0,0 km/h (0 Bft)
12.05.2010 11:28 14,8 C 6,2 C 1,0 UV-I 0,4 C 55 % 94 % 11 % 1008,6 hPa 0,0 l/m 6,0 km/h (2 Bft) 0 min 8,4 km/h (2 Bft)
12.05.2010 11:30 14,8 C 6,3 C 1,0 UV-I 0,3 C 55 % 94 % 9 % 1008,6 hPa 0,0 l/m 5,6 km/h (1 Bft) 0 min 4,2 km/h (1 Bft)
12.05.2010 11:32 14,8 C 6,3 C 1,1 UV-I 0,3 C 55 % 94 % 9 % 1008,6 hPa 0,0 l/m 5,6 km/h (1 Bft) 0 min 7,7 km/h (2 Bft)
12.05.2010 11:34 14,9 C 6,3 C 1,1 UV-I 0,3 C 55 % 94 % 9 % 1008,6 hPa 0,0 l/m 5,6 km/h (1 Bft) 0 min 4,2 km/h (1 Bft)
12.05.2010 11:36 14,9 C 6,2 C 1,0 UV-I 0,3 C 55 % 94 % 9 % 1008,6 hPa 0,0 l/m 5,2 km/h (1 Bft) 0 min 3,9 km/h (1 Bft)
12.05.2010 11:38 14,9 C 6,3 C 1,0 UV-I 0,2 C 55 % 94 % 6 % 1008,6 hPa 0,0 l/m 4,8 km/h (1 Bft) 0 min 0,0 km/h (0 Bft)
12.05.2010 11:40 14,9 C 6,3 C 1,0 UV-I 0,3 C 55 % 94 % 9 % 1008,6 hPa 0,0 l/m 4,4 km/h (1 Bft) 0 min 5,5 km/h (1 Bft)
12.05.2010 11:42 14,9 C 6,3 C 0,9 UV-I 0,3 C 55 % 94 % 9 % 1008,6 hPa 0,0 l/m 4,0 km/h (1 Bft) 0 min 4,5 km/h (1 Bft)
12.05.2010 11:44 14,9 C 6,3 C 0,9 UV-I 0,3 C 55 % 94 % 9 % 1008,6 hPa 0,0 l/m 3,2 km/h (1 Bft) 0 min 6,4 km/h (2 Bft)
12.05.2010 11:46 14,8 C 6,3 C 1,1 UV-I 0,3 C 55 % 94 % 9 % 1008,6 hPa 0,0 l/m 3,2 km/h (1 Bft) 0 min 5,1 km/h (1 Bft)
12.05.2010 11:48 14,8 C 6,3 C 1,1 UV-I 0,4 C 55 % 94 % 11 % 1008,6 hPa 0,0 l/m 3,6 km/h (1 Bft) 0 min 5,8 km/h (2 Bft)
12.05.2010 11:50 14,9 C 6,4 C 1,1 UV-I 0,3 C 55 % 94 % 9 % 1008,6 hPa 0,0 l/m 4,4 km/h (1 Bft) 0 min 10,3 km/h (2 Bft)
12.05.2010 11:52 14,9 C 6,4 C 1,3 UV-I 0,3 C 55 % 94 % 9 % 1008,9 hPa 0,0 l/m 4,4 km/h (1 Bft) 0 min 4,2 km/h (1 Bft)
12.05.2010 11:54 14,9 C 6,4 C 1,3 UV-I 0,3 C 55 % 94 % 9 % 1008,9 hPa 0,0 l/m 4,8 km/h (1 Bft) 0 min 14,2 km/h (3 Bft)
12.05.2010 11:56 14,8 C 6,5 C 1,5 UV-I 0,2 C 55 % 94 % 6 % 1008,9 hPa 0,0 l/m 4,4 km/h (1 Bft) 0 min 6,1 km/h (2 Bft)
12.05.2010 11:58 14,9 C 6,4 C 1,5 UV-I 0,4 C 55 % 94 % 11 % 1008,9 hPa 0,0 l/m 4,4 km/h (1 Bft) 0 min 0,0 km/h (0 Bft)
12.05.2010 12:00 14,9 C 6,4 C 1,5 UV-I 0,4 C 55 % 94 % 11 % 1008,9 hPa 0,0 l/m 4,8 km/h (1 Bft) 0 min 9,0 km/h (2 Bft)
12.05.2010 12:02 14,9 C 6,4 C 1,5 UV-I 0,4 C 55 % 94 % 11 % 1008,9 hPa 0,0 l/m 4,8 km/h (1 Bft) 0 min 5,1 km/h (1 Bft)
12.05.2010 12:04 14,9 C 6,4 C 1,5 UV-I 0,4 C 55 % 94 % 11 % 1008,9 hPa 0,0 l/m 4,8 km/h (1 Bft) 0 min 4,8 km/h (1 Bft)
12.05.2010 12:06 14,9 C 6,4 C 1,3 UV-I 0,5 C 55 % 94 % 14 % 1008,9 hPa 0,0 l/m 6,0 km/h (2 Bft) 0 min 6,8 km/h (2 Bft)
12.05.2010 12:08 14,8 C 6,5 C 1,3 UV-I 0,4 C 55 % 94 % 11 % 1008,9 hPa 0,0 l/m 5,6 km/h (1 Bft) 0 min 6,4 km/h (2 Bft)
12.05.2010 12:10 14,8 C 6,4 C 1,3 UV-I 0,5 C 55 % 94 % 14 % 1008,9 hPa 0,0 l/m 5,6 km/h (1 Bft) 0 min 6,4 km/h (2 Bft)
12.05.2010 12:12 14,8 C 6,4 C 0,8 UV-I 0,5 C 55 % 94 % 14 % 1009,1 hPa 0,0 l/m 4,8 km/h (1 Bft) 0 min 5,1 km/h (1 Bft)
12.05.2010 12:14 14,8 C 6,5 C 0,8 UV-I 0,5 C 55 % 94 % 14 % 1009,1 hPa 0,0 l/m 4,8 km/h (1 Bft) 0 min 13,5 km/h (3 Bft)
12.05.2010 12:16 14,8 C 6,4 C 1,1 UV-I 0,6 C 55 % 94 % 17 % 1009,1 hPa 0,0 l/m 4,4 km/h (1 Bft) 0 min 0,0 km/h (0 Bft)
12.05.2010 12:18 14,8 C 6,5 C 1,1 UV-I 0,5 C 55 % 94 % 14 % 1009,1 hPa 0,0 l/m 4,0 km/h (1 Bft) 0 min 3,2 km/h (1 Bft)
12.05.2010 12:20 14,9 C 6,5 C 1,1 UV-I 0,6 C 55 % 94 % 17 % 1009,1 hPa 0,0 l/m 4,4 km/h (1 Bft) 0 min 8,7 km/h (2 Bft)
12.05.2010 12:22 14,8 C 6,5 C 1,1 UV-I 0,6 C 55 % 94 % 17 % 1009,1 hPa 0,0 l/m 4,4 km/h (1 Bft) 0 min 0,0 km/h (0 Bft)
12.05.2010 12:24 14,8 C 6,5 C 1,1 UV-I 0,7 C 55 % 94 % 20 % 1009,1 hPa 0,0 l/m 4,0 km/h (1 Bft) 0 min 4,2 km/h (1 Bft)
12.05.2010 12:26 14,8 C 6,6 C 1,4 UV-I 0,6 C 55 % 94 % 17 % 1009,1 hPa 0,0 l/m 4,0 km/h (1 Bft) 0 min 10,3 km/h (2 Bft)
12.05.2010 12:28 14,8 C 6,6 C 1,4 UV-I 0,7 C 55 % 94 % 20 % 1009,1 hPa 0,0 l/m 4,8 km/h (1 Bft) 0 min 6,1 km/h (2 Bft)
12.05.2010 12:30 14,9 C 6,6 C 1,4 UV-I 0,7 C 55 % 94 % 20 % 1009,1 hPa 0,0 l/m 4,8 km/h (1 Bft) 0 min 4,2 km/h (1 Bft)
12.05.2010 12:32 14,8 C 6,7 C 1,4 UV-I 0,6 C 55 % 94 % 17 % 1009,0 hPa 0,0 l/m 4,4 km/h (1 Bft) 0 min 7,7 km/h (2 Bft)
12.05.2010 12:34 14,8 C 6,6 C 1,4 UV-I 0,7 C 55 % 94 % 20 % 1009,0 hPa 0,0 l/m 5,6 km/h (1 Bft) 0 min 5,8 km/h (2 Bft)
12.05.2010 12:36 14,8 C 6,7 C 1,6 UV-I 0,7 C 55 % 94 % 20 % 1009,0 hPa 0,0 l/m 5,2 km/h (1 Bft) 0 min 11,3 km/h (2 Bft)
12.05.2010 12:38 14,8 C 6,7 C 1,6 UV-I 0,8 C 55 % 93 % 23 % 1009,0 hPa 0,0 l/m 4,8 km/h (1 Bft) 0 min 0,0 km/h (0 Bft)
12.05.2010 12:40 14,8 C 6,7 C 1,6 UV-I 0,8 C 55 % 93 % 23 % 1009,0 hPa 0,0 l/m 4,8 km/h (1 Bft) 0 min 7,1 km/h (2 Bft)
12.05.2010 12:42 14,8 C 6,8 C 1,5 UV-I 0,8 C 55 % 93 % 23 % 1009,0 hPa 0,0 l/m 4,8 km/h (1 Bft) 0 min 0,0 km/h (0 Bft)
12.05.2010 12:44 14,8 C 6,8 C 1,5 UV-I 0,8 C 55 % 93 % 23 % 1009,0 hPa 0,0 l/m 5,2 km/h (1 Bft) 0 min 14,2 km/h (3 Bft)
12.05.2010 12:46 14,8 C 6,8 C 1,4 UV-I 0,9 C 55 % 93 % 26 % 1009,0 hPa 0,0 l/m 5,6 km/h (1 Bft) 0 min 7,4 km/h (2 Bft)
12.05.2010 12:48 14,8 C 6,8 C 1,4 UV-I 0,9 C 55 % 93 % 26 % 1009,0 hPa 0,0 l/m 5,6 km/h (1 Bft) 0 min 13,8 km/h (3 Bft)
12.05.2010 12:50 14,8 C 6,8 C 1,4 UV-I 0,8 C 55 % 93 % 23 % 1009,0 hPa 0,0 l/m 6,4 km/h (2 Bft) 0 min 9,0 km/h (2 Bft)
12.05.2010 12:52 15,0 C 6,8 C 1,3 UV-I 0,8 C 55 % 93 % 23 % 1009,2 hPa 0,0 l/m 6,0 km/h (2 Bft) 0 min 4,2 km/h (1 Bft)
12.05.2010 12:54 14,8 C 6,8 C 1,3 UV-I 0,8 C 55 % 93 % 23 % 1009,2 hPa 0,0 l/m 5,6 km/h (1 Bft) 0 min 3,2 km/h (1 Bft)
12.05.2010 12:56 14,8 C 6,8 C 1,4 UV-I 0,8 C 55 % 93 % 23 % 1009,2 hPa 0,0 l/m 4,4 km/h (1 Bft) 0 min 3,2 km/h (1 Bft)
12.05.2010 12:58 15,0 C 6,8 C 1,4 UV-I 0,9 C 55 % 93 % 26 % 1009,2 hPa 0,0 l/m 4,0 km/h (1 Bft) 0 min 12,6 km/h (3 Bft)
12.05.2010 13:00 15,0 C 6,9 C 1,4 UV-I 0,8 C 55 % 93 % 23 % 1009,2 hPa 0,0 l/m 3,6 km/h (1 Bft) 0 min 6,1 km/h (2 Bft)
12.05.2010 13:02 15,0 C 6,8 C 1,4 UV-I 0,9 C 55 % 93 % 26 % 1009,2 hPa 0,0 l/m 4,4 km/h (1 Bft) 0 min 16,4 km/h (3 Bft)
12.05.2010 13:04 15,0 C 6,9 C 1,4 UV-I 0,7 C 55 % 92 % 20 % 1009,2 hPa 0,0 l/m 4,8 km/h (1 Bft) 0 min 7,4 km/h (2 Bft)
12.05.2010 13:06 15,0 C 6,9 C 1,8 UV-I 0,7 C 55 % 92 % 20 % 1009,2 hPa 0,0 l/m 5,6 km/h (1 Bft) 0 min 6,8 km/h (2 Bft)
12.05.2010 13:08 15,0 C 6,9 C 1,8 UV-I 0,8 C 55 % 92 % 23 % 1009,2 hPa 0,0 l/m 6,0 km/h (2 Bft) 0 min 6,4 km/h (2 Bft)
12.05.2010 13:10 15,0 C 7,0 C 1,8 UV-I 0,9 C 55 % 93 % 26 % 1009,2 hPa 0,0 l/m 6,0 km/h (2 Bft) 0 min 8,4 km/h (2 Bft)
12.05.2010 13:12 15,0 C 7,1 C 2,7 UV-I 1,0 C 55 % 93 % 29 % 1009,8 hPa 0,0 l/m 6,0 km/h (2 Bft) 0 min 0,0 km/h (0 Bft)
12.05.2010 13:14 15,0 C 7,1 C 2,7 UV-I 1,1 C 55 % 93 % 31 % 1009,8 hPa 0,0 l/m 5,6 km/h (1 Bft) 0 min 9,0 km/h (2 Bft)
12.05.2010 13:16 15,0 C 7,1 C 2,7 UV-I 1,3 C 55 % 93 % 37 % 1009,8 hPa 0,0 l/m 4,8 km/h (1 Bft) 0 min 6,1 km/h (2 Bft)
12.05.2010 13:18 15,0 C 7,1 C 2,7 UV-I 1,4 C 55 % 93 % 40 % 1009,8 hPa 0,0 l/m 5,2 km/h (1 Bft) 0 min 6,4 km/h (2 Bft)
12.05.2010 13:22 15,0 C 7,2 C 2,4 UV-I 1,3 C 55 % 93 % 37 % 1009,8 hPa 0,0 l/m 5,6 km/h (1 Bft) 0 min 11,9 km/h (2 Bft)
12.05.2010 13:24 15,0 C 7,2 C 2,4 UV-I 1,2 C 55 % 93 % 34 % 1009,8 hPa 0,0 l/m 5,2 km/h (1 Bft) 0 min 0,0 km/h (0 Bft)
12.05.2010 13:26 15,0 C 7,2 C 2,3 UV-I 1,3 C 55 % 92 % 37 % 1009,8 hPa 0,0 l/m 5,6 km/h (1 Bft) 0 min 6,8 km/h (2 Bft)
12.05.2010 13:28 15,0 C 7,1 C 2,3 UV-I 1,4 C 55 % 92 % 40 % 1009,8 hPa 0,0 l/m 6,0 km/h (2 Bft) 0 min 7,7 km/h (2 Bft)
12.05.2010 13:30 15,0 C 7,2 C 2,3 UV-I 1,2 C 55 % 92 % 34 % 1009,8 hPa 0,0 l/m 6,8 km/h (2 Bft) 0 min 5,1 km/h (1 Bft)
12.05.2010 13:32 15,0 C 7,2 C 1,8 UV-I 1,2 C 55 % 92 % 34 % 1009,8 hPa 0,0 l/m 6,8 km/h (2 Bft) 0 min 5,5 km/h (1 Bft)
12.05.2010 13:34 14,9 C 7,2 C 1,8 UV-I 1,2 C 55 % 92 % 34 % 1009,8 hPa 0,0 l/m 7,6 km/h (2 Bft) 0 min 10,6 km/h (2 Bft)
12.05.2010 13:36 15,0 C 7,2 C 2,0 UV-I 1,1 C 55 % 91 % 31 % 1009,8 hPa 0,0 l/m 8,0 km/h (2 Bft) 0 min 0,0 km/h (0 Bft)
12.05.2010 13:38 14,9 C 7,2 C 2,0 UV-I 1,1 C 55 % 92 % 31 % 1009,8 hPa 0,0 l/m 7,6 km/h (2 Bft) 0 min 9,7 km/h (2 Bft)
12.05.2010 13:40 14,9 C 7,2 C 2,0 UV-I 1,2 C 55 % 92 % 34 % 1009,8 hPa 0,0 l/m 6,0 km/h (2 Bft) 0 min 0,0 km/h (0 Bft)
12.05.2010 13:42 15,0 C 7,2 C 1,9 UV-I 1,2 C 54 % 91 % 34 % 1009,8 hPa 0,0 l/m 6,0 km/h (2 Bft) 0 min 8,7 km/h (2 Bft)
12.05.2010 13:44 14,9 C 7,3 C 1,9 UV-I 1,1 C 54 % 91 % 31 % 1009,8 hPa 0,0 l/m 5,6 km/h (1 Bft) 0 min 5,5 km/h (1 Bft)
12.05.2010 13:46 14,9 C 7,2 C 1,3 UV-I 1,2 C 54 % 91 % 34 % 1009,8 hPa 0,0 l/m 5,2 km/h (1 Bft) 0 min 3,2 km/h (1 Bft)
12.05.2010 13:48 15,1 C 7,2 C 1,3 UV-I 1,1 C 54 % 91 % 31 % 1009,8 hPa 0,0 l/m 5,2 km/h (1 Bft) 0 min 8,7 km/h (2 Bft)
12.05.2010 13:50 15,1 C 7,3 C 1,3 UV-I 1,0 C 54 % 91 % 29 % 1009,8 hPa 0,0 l/m 4,4 km/h (1 Bft) 0 min 0,0 km/h (0 Bft)
12.05.2010 13:52 15,1 C 7,2 C 1,1 UV-I 1,1 C 54 % 91 % 31 % 1010,1 hPa 0,0 l/m 3,6 km/h (1 Bft) 0 min 0,0 km/h (0 Bft)
12.05.2010 13:54 15,1 C 7,3 C 1,1 UV-I 1,0 C 54 % 91 % 29 % 1010,1 hPa 0,0 l/m 2,8 km/h (1 Bft) 0 min 0,0 km/h (0 Bft)
12.05.2010 13:56 14,9 C 7,4 C 0,8 UV-I 0,9 C 54 % 91 % 26 % 1010,1 hPa 0,0 l/m 1,6 km/h (1 Bft) 0 min 3,5 km/h (1 Bft)
12.05.2010 13:58 14,9 C 7,4 C 0,8 UV-I 0,8 C 54 % 91 % 23 % 1010,1 hPa 0,0 l/m 2,8 km/h (1 Bft) 0 min 5,5 km/h (1 Bft)
12.05.2010 14:00 14,9 C 7,5 C 0,8 UV-I 0,7 C 54 % 91 % 20 % 1010,1 hPa 0,0 l/m 3,6 km/h (1 Bft) 0 min 4,5 km/h (1 Bft)
12.05.2010 14:02 15,1 C 7,5 C 0,9 UV-I 0,6 C 54 % 91 % 17 % 1010,1 hPa 0,0 l/m 4,4 km/h (1 Bft) 0 min 0,0 km/h (0 Bft)
12.05.2010 14:04 14,9 C 7,5 C 0,9 UV-I 0,6 C 54 % 91 % 17 % 1010,1 hPa 0,0 l/m 4,4 km/h (1 Bft) 0 min 0,0 km/h (0 Bft)
12.05.2010 14:06 14,9 C 7,5 C 1,2 UV-I 0,6 C 54 % 91 % 17 % 1010,1 hPa 0,0 l/m 4,4 km/h (1 Bft) 0 min 0,0 km/h (0 Bft)
12.05.2010 14:08 15,0 C 7,4 C 1,2 UV-I 0,7 C 54 % 91 % 20 % 1010,1 hPa 0,0 l/m 3,2 km/h (1 Bft) 0 min 0,0 km/h (0 Bft)
12.05.2010 14:10 14,9 C 7,5 C 1,2 UV-I 0,7 C 54 % 91 % 20 % 1010,1 hPa 0,0 l/m 3,2 km/h (1 Bft) 0 min 8,0 km/h (2 Bft)
12.05.2010 14:12 14,9 C 7,5 C 1,4 UV-I 0,7 C 54 % 91 % 20 % 1010,0 hPa 0,0 l/m 3,2 km/h (1 Bft) 0 min 7,7 km/h (2 Bft)
12.05.2010 14:14 15,0 C 7,5 C 1,4 UV-I 0,8 C 54 % 91 % 23 % 1010,0 hPa 0,0 l/m 3,6 km/h (1 Bft) 0 min 3,5 km/h (1 Bft)
12.05.2010 14:16 14,9 C 7,6 C 2,1 UV-I 0,8 C 54 % 91 % 23 % 1010,0 hPa 0,0 l/m 4,0 km/h (1 Bft) 0 min 5,1 km/h (1 Bft)
12.05.2010 14:18 15,1 C 7,6 C 2,1 UV-I 0,9 C 54 % 91 % 26 % 1010,0 hPa 0,0 l/m 4,0 km/h (1 Bft) 0 min 0,0 km/h (0 Bft)
12.05.2010 14:20 14,9 C 7,6 C 2,1 UV-I 1,0 C 54 % 90 % 29 % 1010,0 hPa 0,0 l/m 4,4 km/h (1 Bft) 0 min 12,6 km/h (3 Bft)
12.05.2010 14:22 14,9 C 7,7 C 1,9 UV-I 1,0 C 54 % 90 % 29 % 1010,0 hPa 0,0 l/m 4,0 km/h (1 Bft) 0 min 6,8 km/h (2 Bft)
12.05.2010 14:24 14,9 C 7,7 C 1,9 UV-I 1,0 C 54 % 90 % 29 % 1010,0 hPa 0,0 l/m 4,4 km/h (1 Bft) 0 min 13,8 km/h (3 Bft)
12.05.2010 14:26 15,1 C 7,6 C 2,0 UV-I 1,1 C 54 % 90 % 31 % 1010,0 hPa 0,0 l/m 4,8 km/h (1 Bft) 0 min 3,2 km/h (1 Bft)
12.05.2010 14:28 14,9 C 7,6 C 2,0 UV-I 1,1 C 54 % 90 % 31 % 1010,0 hPa 0,0 l/m 5,2 km/h (1 Bft) 0 min 4,5 km/h (1 Bft)
12.05.2010 14:30 14,9 C 7,6 C 2,0 UV-I 1,1 C 54 % 90 % 31 % 1010,0 hPa 0,0 l/m 5,6 km/h (1 Bft) 0 min 0,0 km/h (0 Bft)
12.05.2010 14:36 15,1 C 7,7 C 1,9 UV-I 1,1 C 54 % 90 % 31 % 1010,1 hPa 0,0 l/m 5,6 km/h (1 Bft) 0 min 16,1 km/h (3 Bft)
12.05.2010 14:38 15,1 C 7,6 C 1,9 UV-I 1,1 C 54 % 90 % 31 % 1010,1 hPa 0,0 l/m 5,6 km/h (1 Bft) 0 min 4,8 km/h (1 Bft)
12.05.2010 14:42 15,1 C 7,6 C 1,7 UV-I 0,9 C 54 % 90 % 26 % 1010,1 hPa 0,0 l/m 5,2 km/h (1 Bft) 0 min 4,8 km/h (1 Bft)
12.05.2010 14:44 15,1 C 7,6 C 1,7 UV-I 0,9 C 54 % 90 % 26 % 1010,1 hPa 0,0 l/m 4,8 km/h (1 Bft) 0 min 5,8 km/h (2 Bft)
12.05.2010 14:46 14,9 C 7,6 C 2,4 UV-I 0,8 C 54 % 91 % 23 % 1010,1 hPa 0,0 l/m 4,4 km/h (1 Bft) 0 min 3,2 km/h (1 Bft)
12.05.2010 14:48 14,9 C 7,6 C 2,4 UV-I 0,9 C 54 % 91 % 26 % 1010,1 hPa 0,0 l/m 3,6 km/h (1 Bft) 0 min 4,5 km/h (1 Bft)
12.05.2010 14:50 14,9 C 7,6 C 2,4 UV-I 1,0 C 54 % 91 % 29 % 1010,1 hPa 0,0 l/m 4,0 km/h (1 Bft) 0 min 8,7 km/h (2 Bft)
12.05.2010 14:52 15,1 C 7,6 C 2,2 UV-I 1,1 C 55 % 91 % 31 % 1010,2 hPa 0,0 l/m 3,6 km/h (1 Bft) 0 min 7,7 km/h (2 Bft)
12.05.2010 14:54 15,1 C 7,7 C 2,2 UV-I 1,0 C 55 % 91 % 29 % 1010,2 hPa 0,0 l/m 4,0 km/h (1 Bft) 0 min 4,8 km/h (1 Bft)
12.05.2010 14:56 15,1 C 7,7 C 2,2 UV-I 1,0 C 55 % 91 % 29 % 1010,2 hPa 0,0 l/m 3,2 km/h (1 Bft) 0 min 4,8 km/h (1 Bft)
12.05.2010 14:58 15,1 C 7,7 C 2,2 UV-I 1,1 C 55 % 91 % 31 % 1010,2 hPa 0,0 l/m 3,6 km/h (1 Bft) 0 min 3,2 km/h (1 Bft)
12.05.2010 15:00 15,1 C 7,7 C 2,2 UV-I 1,2 C 55 % 91 % 34 % 1010,2 hPa 0,0 l/m 3,2 km/h (1 Bft) 0 min 5,1 km/h (1 Bft)
12.05.2010 15:02 15,1 C 7,7 C 2,4 UV-I 1,3 C 55 % 91 % 37 % 1010,2 hPa 0,0 l/m 2,8 km/h (1 Bft) 0 min 3,2 km/h (1 Bft)
12.05.2010 15:04 15,1 C 7,7 C 2,4 UV-I 1,4 C 55 % 91 % 40 % 1010,2 hPa 0,0 l/m 3,6 km/h (1 Bft) 0 min 8,4 km/h (2 Bft)
12.05.2010 15:06 15,1 C 7,7 C 1,9 UV-I 1,3 C 55 % 91 % 37 % 1010,2 hPa 0,0 l/m 4,8 km/h (1 Bft) 0 min 5,1 km/h (1 Bft)
12.05.2010 15:08 15,1 C 7,9 C 1,9 UV-I 1,1 C 55 % 91 % 31 % 1010,2 hPa 0,0 l/m 5,2 km/h (1 Bft) 0 min 11,6 km/h (2 Bft)
12.05.2010 15:10 15,1 C 7,9 C 1,9 UV-I 1,1 C 55 % 91 % 31 % 1010,2 hPa 0,0 l/m 6,0 km/h (2 Bft) 0 min 4,2 km/h (1 Bft)
12.05.2010 15:14 15,1 C 7,9 C 1,9 UV-I 1,2 C 55 % 90 % 34 % 1010,5 hPa 0,0 l/m 6,4 km/h (2 Bft) 0 min 12,9 km/h (3 Bft)
12.05.2010 15:16 15,1 C 7,8 C 1,5 UV-I 1,3 C 55 % 90 % 37 % 1010,5 hPa 0,0 l/m 5,2 km/h (1 Bft) 0 min 3,9 km/h (1 Bft)
12.05.2010 15:18 15,2 C 7,9 C 1,5 UV-I 1,1 C 55 % 90 % 31 % 1010,5 hPa 0,0 l/m 5,6 km/h (1 Bft) 0 min 4,5 km/h (1 Bft)
12.05.2010 15:20 15,2 C 7,9 C 1,5 UV-I 1,1 C 55 % 90 % 31 % 1010,5 hPa 0,0 l/m 5,2 km/h (1 Bft) 0 min 6,8 km/h (2 Bft)
12.05.2010 15:22 15,1 C 7,9 C 0,6 UV-I 0,9 C 54 % 90 % 26 % 1010,5 hPa 0,0 l/m 4,8 km/h (1 Bft) 0 min 7,7 km/h (2 Bft)
12.05.2010 15:26 15,2 C 7,9 C 0,4 UV-I 0,7 C 54 % 90 % 20 % 1010,5 hPa 0,0 l/m 4,8 km/h (1 Bft) 0 min 10,6 km/h (2 Bft)
12.05.2010 15:28 15,2 C 7,8 C 0,4 UV-I 0,6 C 54 % 90 % 17 % 1010,5 hPa 0,0 l/m 4,4 km/h (1 Bft) 0 min 4,5 km/h (1 Bft)
12.05.2010 15:30 15,1 C 7,8 C 0,4 UV-I 0,5 C 54 % 90 % 14 % 1010,5 hPa 0,0 l/m 4,4 km/h (1 Bft) 0 min 7,7 km/h (2 Bft)
12.05.2010 15:32 15,2 C 7,7 C 0,2 UV-I 0,5 C 54 % 90 % 14 % 1010,5 hPa 0,0 l/m 4,8 km/h (1 Bft) 0 min 5,8 km/h (2 Bft)
12.05.2010 15:34 15,1 C 7,7 C 0,2 UV-I 0,4 C 54 % 90 % 11 % 1010,5 hPa 0,0 l/m 6,0 km/h (2 Bft) 0 min 12,9 km/h (3 Bft)
12.05.2010 15:36 15,1 C 7,7 C 0,7 UV-I 0,3 C 54 % 89 % 9 % 1010,5 hPa 0,0 l/m 5,6 km/h (1 Bft) 0 min 8,7 km/h (2 Bft)
12.05.2010 15:38 15,1 C 7,7 C 0,7 UV-I 0,3 C 54 % 89 % 9 % 1010,5 hPa 0,0 l/m 5,6 km/h (1 Bft) 0 min 4,2 km/h (1 Bft)
12.05.2010 15:40 15,1 C 7,7 C 0,7 UV-I 0,3 C 54 % 90 % 9 % 1010,5 hPa 0,0 l/m 5,2 km/h (1 Bft) 0 min 6,8 km/h (2 Bft)
12.05.2010 15:42 15,1 C 7,7 C 0,6 UV-I 0,3 C 55 % 89 % 9 % 1010,5 hPa 0,0 l/m 4,8 km/h (1 Bft) 0 min 4,5 km/h (1 Bft)
12.05.2010 15:46 15,1 C 7,7 C 0,4 UV-I 0,3 C 54 % 89 % 9 % 1010,5 hPa 0,0 l/m 3,6 km/h (1 Bft) 0 min 5,8 km/h (2 Bft)
12.05.2010 15:48 15,1 C 7,7 C 0,4 UV-I 0,3 C 54 % 89 % 9 % 1010,5 hPa 0,0 l/m 3,2 km/h (1 Bft) 0 min 0,0 km/h (0 Bft)
12.05.2010 15:50 15,1 C 7,7 C 0,4 UV-I 0,3 C 54 % 89 % 9 % 1010,5 hPa 0,0 l/m 4,0 km/h (1 Bft) 0 min 6,4 km/h (2 Bft)
12.05.2010 15:52 15,1 C 7,7 C 0,5 UV-I 0,3 C 54 % 89 % 9 % 1010,6 hPa 0,0 l/m 3,6 km/h (1 Bft) 0 min 4,8 km/h (1 Bft)
12.05.2010 15:54 15,1 C 7,7 C 0,5 UV-I 0,3 C 54 % 89 % 9 % 1010,6 hPa 0,0 l/m 2,8 km/h (1 Bft) 0 min 5,8 km/h (2 Bft)
12.05.2010 15:56 15,1 C 7,7 C 0,9 UV-I 0,4 C 54 % 89 % 11 % 1010,6 hPa 0,0 l/m 2,8 km/h (1 Bft) 0 min 0,0 km/h (0 Bft)
12.05.2010 15:58 15,1 C 7,7 C 0,9 UV-I 0,5 C 54 % 89 % 14 % 1010,6 hPa 0,0 l/m 3,2 km/h (1 Bft) 0 min 0,0 km/h (0 Bft)
12.05.2010 16:00 15,1 C 7,7 C 0,9 UV-I 0,4 C 54 % 89 % 11 % 1010,6 hPa 0,0 l/m 2,8 km/h (1 Bft) 0 min 0,0 km/h (0 Bft)
12.05.2010 16:02 15,1 C 7,7 C 0,3 UV-I 0,5 C 54 % 89 % 14 % 1010,6 hPa 0,0 l/m 2,4 km/h (1 Bft) 0 min 0,0 km/h (0 Bft)
12.05.2010 16:06 15,1 C 7,7 C 0,3 UV-I 0,4 C 54 % 89 % 11 % 1010,6 hPa 0,0 l/m 3,6 km/h (1 Bft) 0 min 7,1 km/h (2 Bft)
12.05.2010 16:08 15,1 C 7,7 C 0,3 UV-I 0,4 C 54 % 89 % 11 % 1010,6 hPa 0,0 l/m 3,6 km/h (1 Bft) 0 min 10,6 km/h (2 Bft)
12.05.2010 16:10 15,1 C 7,8 C 0,3 UV-I 0,3 C 54 % 89 % 9 % 1010,6 hPa 0,0 l/m 4,4 km/h (1 Bft) 0 min 5,5 km/h (1 Bft)
12.05.2010 16:12 15,1 C 7,8 C 0,8 UV-I 0,3 C 54 % 89 % 9 % 1010,6 hPa 0,0 l/m 4,4 km/h (1 Bft) 0 min 0,0 km/h (0 Bft)
12.05.2010 16:14 14,9 C 7,9 C 0,8 UV-I 0,2 C 54 % 89 % 6 % 1010,6 hPa 0,0 l/m 4,4 km/h (1 Bft) 0 min 3,5 km/h (1 Bft)
12.05.2010 16:16 15,1 C 7,8 C 1,1 UV-I 0,3 C 54 % 89 % 9 % 1010,6 hPa 0,0 l/m 3,6 km/h (1 Bft) 0 min 0,0 km/h (0 Bft)
12.05.2010 16:18 15,1 C 7,9 C 1,1 UV-I 0,3 C 54 % 89 % 9 % 1010,6 hPa 0,0 l/m 3,2 km/h (1 Bft) 0 min 4,5 km/h (1 Bft)
12.05.2010 16:20 15,1 C 7,9 C 1,1 UV-I 0,3 C 54 % 89 % 9 % 1010,6 hPa 0,0 l/m 2,4 km/h (1 Bft) 0 min 4,8 km/h (1 Bft)
12.05.2010 16:24 15,1 C 7,9 C 0,6 UV-I 0,3 C 54 % 89 % 9 % 1010,6 hPa 0,0 l/m 2,0 km/h (1 Bft) 0 min 4,8 km/h (1 Bft)
12.05.2010 16:26 14,9 C 7,9 C 0,5 UV-I 0,3 C 54 % 89 % 9 % 1010,6 hPa 0,0 l/m 3,2 km/h (1 Bft) 0 min 3,9 km/h (1 Bft)
12.05.2010 16:28 14,9 C 7,9 C 0,5 UV-I 0,2 C 54 % 89 % 6 % 1010,6 hPa 0,0 l/m 2,8 km/h (1 Bft) 0 min 3,5 km/h (1 Bft)
12.05.2010 16:30 14,9 C 7,9 C 0,5 UV-I 0,2 C 54 % 89 % 6 % 1010,6 hPa 0,0 l/m 2,4 km/h (1 Bft) 0 min 7,4 km/h (2 Bft)
12.05.2010 16:32 14,9 C 7,9 C 0,5 UV-I 0,2 C 54 % 89 % 6 % 1010,5 hPa 0,0 l/m 2,4 km/h (1 Bft) 0 min 0,0 km/h (0 Bft)
12.05.2010 16:34 14,9 C 7,9 C 0,5 UV-I 0,2 C 54 % 89 % 6 % 1010,5 hPa 0,0 l/m 2,4 km/h (1 Bft) 0 min 0,0 km/h (0 Bft)
12.05.2010 16:36 14,9 C 7,9 C 0,6 UV-I 0,2 C 55 % 89 % 6 % 1010,5 hPa 0,0 l/m 1,6 km/h (1 Bft) 0 min 8,4 km/h (2 Bft)
12.05.2010 16:38 14,9 C 7,9 C 0,6 UV-I 0,2 C 54 % 89 % 6 % 1010,5 hPa 0,0 l/m 1,6 km/h (1 Bft) 0 min 3,9 km/h (1 Bft)
12.05.2010 16:42 14,9 C 7,9 C 0,3 UV-I 0,2 C 54 % 89 % 6 % 1010,5 hPa 0,0 l/m 2,0 km/h (1 Bft) 0 min 6,1 km/h (2 Bft)
12.05.2010 16:44 14,9 C 7,9 C 0,3 UV-I 0,2 C 54 % 89 % 6 % 1010,5 hPa 0,0 l/m 2,0 km/h (1 Bft) 0 min 0,0 km/h (0 Bft)
12.05.2010 16:46 15,0 C 7,9 C 0,6 UV-I 0,1 C 54 % 89 % 3 % 1010,5 hPa 0,0 l/m 2,0 km/h (1 Bft) 0 min 0,0 km/h (0 Bft)
12.05.2010 16:48 14,9 C 7,8 C 0,6 UV-I 0,2 C 54 % 89 % 6 % 1010,5 hPa 0,0 l/m 2,0 km/h (1 Bft) 0 min 4,2 km/h (1 Bft)
12.05.2010 16:50 15,0 C 7,9 C 0,6 UV-I 0,1 C 54 % 89 % 3 % 1010,5 hPa 0,0 l/m 1,2 km/h (1 Bft) 0 min 0,0 km/h (0 Bft)
12.05.2010 16:52 15,0 C 7,8 C 0,5 UV-I 0,2 C 54 % 89 % 6 % 1010,8 hPa 0,0 l/m 0,8 km/h (0 Bft) 0 min 4,8 km/h (1 Bft)
12.05.2010 16:56 15,0 C 7,8 C 0,5 UV-I 0,2 C 54 % 89 % 6 % 1010,8 hPa 0,0 l/m 1,2 km/h (1 Bft) 0 min 0,0 km/h (0 Bft)
12.05.2010 16:58 15,0 C 7,9 C 0,5 UV-I 0,2 C 55 % 89 % 6 % 1010,8 hPa 0,0 l/m 0,8 km/h (0 Bft) 0 min 0,0 km/h (0 Bft)
12.05.2010 17:00 15,0 C 7,8 C 0,5 UV-I 0,3 C 55 % 89 % 9 % 1010,8 hPa 0,0 l/m 1,2 km/h (1 Bft) 0 min 0,0 km/h (0 Bft)
12.05.2010 17:02 14,9 C 7,9 C 0,4 UV-I 0,2 C 55 % 89 % 6 % 1010,8 hPa 0,0 l/m 1,6 km/h (1 Bft) 0 min 4,8 km/h (1 Bft)
12.05.2010 17:04 15,0 C 7,9 C 0,4 UV-I 0,2 C 55 % 89 % 6 % 1010,8 hPa 0,0 l/m 1,2 km/h (1 Bft) 0 min 0,0 km/h (0 Bft)
12.05.2010 17:06 15,0 C 7,8 C 0,5 UV-I 0,3 C 54 % 89 % 9 % 1010,8 hPa 0,0 l/m 1,2 km/h (1 Bft) 0 min 0,0 km/h (0 Bft)
12.05.2010 17:08 15,0 C 7,9 C 0,5 UV-I 0,1 C 55 % 89 % 3 % 1010,8 hPa 0,0 l/m 2,0 km/h (1 Bft) 0 min 0,0 km/h (0 Bft)
12.05.2010 17:10 15,0 C 7,9 C 0,5 UV-I 0,1 C 55 % 89 % 3 % 1010,8 hPa 0,0 l/m 2,0 km/h (1 Bft) 0 min 3,2 km/h (1 Bft)
12.05.2010 17:12 15,0 C 7,8 C 0,6 UV-I 0,2 C 55 % 89 % 6 % 1010,6 hPa 0,0 l/m 1,6 km/h (1 Bft) 0 min 0,0 km/h (0 Bft)
12.05.2010 17:14 15,0 C 7,9 C 0,6 UV-I 0,1 C 55 % 89 % 3 % 1010,6 hPa 0,0 l/m 1,2 km/h (1 Bft) 0 min 3,2 km/h (1 Bft)
12.05.2010 17:16 15,0 C 7,9 C 0,8 UV-I 0,2 C 55 % 89 % 6 % 1010,6 hPa 0,0 l/m 1,6 km/h (1 Bft) 0 min 13,2 km/h (3 Bft)
12.05.2010 17:18 15,0 C 7,9 C 0,8 UV-I 0,2 C 55 % 89 % 6 % 1010,6 hPa 0,0 l/m 1,2 km/h (1 Bft) 0 min 0,0 km/h (0 Bft)
12.05.2010 17:20 15,0 C 7,9 C 0,8 UV-I 0,2 C 55 % 89 % 6 % 1010,6 hPa 0,0 l/m 1,2 km/h (1 Bft) 0 min 0,0 km/h (0 Bft)
12.05.2010 17:22 15,0 C 7,9 C 1,3 UV-I 0,3 C 55 % 88 % 9 % 1010,6 hPa 0,0 l/m 1,6 km/h (1 Bft) 0 min 3,5 km/h (1 Bft)
12.05.2010 17:24 15,0 C 7,9 C 1,3 UV-I 0,4 C 55 % 88 % 11 % 1010,6 hPa 0,0 l/m 1,6 km/h (1 Bft) 0 min 0,0 km/h (0 Bft)
12.05.2010 17:26 15,0 C 7,9 C 1,5 UV-I 0,5 C 55 % 88 % 14 % 1010,6 hPa 0,0 l/m 2,8 km/h (1 Bft) 0 min 7,4 km/h (2 Bft)
12.05.2010 17:28 15,0 C 7,9 C 1,5 UV-I 0,6 C 55 % 88 % 17 % 1010,6 hPa 0,0 l/m 2,4 km/h (1 Bft) 0 min 3,5 km/h (1 Bft)
12.05.2010 17:30 15,0 C 7,9 C 1,5 UV-I 0,7 C 55 % 88 % 20 % 1010,6 hPa 0,0 l/m 3,6 km/h (1 Bft) 0 min 11,3 km/h (2 Bft)
12.05.2010 17:34 15,0 C 8,0 C 0,9 UV-I 0,6 C 55 % 88 % 17 % 1010,8 hPa 0,0 l/m 2,8 km/h (1 Bft) 0 min 4,5 km/h (1 Bft)
12.05.2010 17:36 15,0 C 8,1 C 0,5 UV-I 0,4 C 55 % 88 % 11 % 1010,8 hPa 0,0 l/m 2,8 km/h (1 Bft) 0 min 0,0 km/h (0 Bft)
12.05.2010 17:38 15,0 C 8,0 C 0,5 UV-I 0,5 C 55 % 88 % 14 % 1010,8 hPa 0,0 l/m 2,0 km/h (1 Bft) 0 min 0,0 km/h (0 Bft)
12.05.2010 17:40 15,0 C 8,0 C 0,5 UV-I 0,4 C 55 % 87 % 11 % 1010,8 hPa 0,0 l/m 2,4 km/h (1 Bft) 0 min 3,9 km/h (1 Bft)
12.05.2010 17:42 15,0 C 8,0 C 0,2 UV-I 0,4 C 55 % 87 % 11 % 1010,8 hPa 0,0 l/m 2,4 km/h (1 Bft) 0 min 6,1 km/h (2 Bft)
12.05.2010 17:44 15,0 C 8,1 C 0,2 UV-I 0,3 C 55 % 87 % 9 % 1010,8 hPa 0,0 l/m 2,8 km/h (1 Bft) 0 min 8,4 km/h (2 Bft)
12.05.2010 17:46 15,0 C 8,0 C 0,2 UV-I 0,3 C 55 % 87 % 9 % 1010,8 hPa 0,0 l/m 3,2 km/h (1 Bft) 0 min 0,0 km/h (0 Bft)
12.05.2010 17:52 15,0 C 8,0 C 0,1 UV-I 0,1 C 55 % 87 % 3 % 1010,2 hPa 0,0 l/m 3,6 km/h (1 Bft) 0 min 15,1 km/h (3 Bft)
12.05.2010 17:56 15,0 C 8,0 C 0,4 UV-I 0,1 C 55 % 87 % 3 % 1010,2 hPa 0,0 l/m 2,8 km/h (1 Bft) 0 min 13,2 km/h (3 Bft)
12.05.2010 17:58 15,0 C 8,0 C 0,4 UV-I 0,1 C 55 % 87 % 3 % 1010,2 hPa 0,0 l/m 2,8 km/h (1 Bft) 0 min 0,0 km/h (0 Bft)
12.05.2010 18:00 15,0 C 8,0 C 0,4 UV-I 0,1 C 55 % 87 % 3 % 1010,2 hPa 0,0 l/m 2,4 km/h (1 Bft) 0 min 0,0 km/h (0 Bft)
12.05.2010 18:02 15,0 C 8,0 C 0,4 UV-I 0,1 C 55 % 87 % 3 % 1010,2 hPa 0,0 l/m 3,2 km/h (1 Bft) 0 min 12,6 km/h (3 Bft)
12.05.2010 18:04 15,0 C 8,0 C 0,4 UV-I 0,2 C 55 % 87 % 6 % 1010,2 hPa 0,0 l/m 2,8 km/h (1 Bft) 0 min 0,0 km/h (0 Bft)
12.05.2010 18:06 15,0 C 8,0 C 0,8 UV-I 0,2 C 55 % 87 % 6 % 1010,2 hPa 0,0 l/m 2,0 km/h (1 Bft) 0 min 0,0 km/h (0 Bft)
12.05.2010 18:08 15,0 C 8,0 C 0,8 UV-I 0,3 C 55 % 87 % 9 % 1010,2 hPa 0,0 l/m 2,0 km/h (1 Bft) 0 min 6,8 km/h (2 Bft)
12.05.2010 18:10 15,0 C 8,0 C 0,8 UV-I 0,4 C 55 % 87 % 11 % 1010,2 hPa 0,0 l/m 2,0 km/h (1 Bft) 0 min 0,0 km/h (0 Bft)
12.05.2010 18:12 15,0 C 8,0 C 0,5 UV-I 0,4 C 55 % 87 % 11 % 1010,6 hPa 0,0 l/m 2,0 km/h (1 Bft) 0 min 7,1 km/h (2 Bft)
12.05.2010 18:14 15,0 C 8,0 C 0,5 UV-I 0,5 C 55 % 87 % 14 % 1010,6 hPa 0,0 l/m 2,0 km/h (1 Bft) 0 min 7,7 km/h (2 Bft)
12.05.2010 18:16 15,0 C 8,1 C 1,0 UV-I 0,5 C 55 % 87 % 14 % 1010,6 hPa 0,0 l/m 2,4 km/h (1 Bft) 0 min 5,5 km/h (1 Bft)
12.05.2010 18:18 15,0 C 8,1 C 1,0 UV-I 0,5 C 55 % 87 % 14 % 1010,6 hPa 0,0 l/m 2,8 km/h (1 Bft) 0 min 0,0 km/h (0 Bft)
12.05.2010 18:20 15,0 C 8,1 C 1,0 UV-I 0,5 C 55 % 87 % 14 % 1010,6 hPa 0,0 l/m 2,4 km/h (1 Bft) 0 min 3,2 km/h (1 Bft)
12.05.2010 18:22 15,0 C 8,1 C 0,2 UV-I 0,5 C 55 % 87 % 14 % 1010,6 hPa 0,0 l/m 2,4 km/h (1 Bft) 0 min 0,0 km/h (0 Bft)
12.05.2010 18:26 15,0 C 8,1 C 0,0 UV-I 0,3 C 55 % 87 % 9 % 1010,6 hPa 0,0 l/m 0,8 km/h (0 Bft) 0 min 3,5 km/h (1 Bft)
12.05.2010 18:28 15,0 C 8,1 C 0,0 UV-I 0,3 C 55 % 86 % 9 % 1010,6 hPa 0,0 l/m 1,2 km/h (1 Bft) 0 min 7,4 km/h (2 Bft)
12.05.2010 18:30 15,0 C 8,1 C 0,0 UV-I 0,2 C 55 % 86 % 6 % 1010,6 hPa 0,0 l/m 1,6 km/h (1 Bft) 0 min 0,0 km/h (0 Bft)
12.05.2010 18:32 15,0 C 8,1 C 0,0 UV-I 0,1 C 55 % 86 % 3 % 1010,8 hPa 0,0 l/m 1,6 km/h (1 Bft) 0 min 0,0 km/h (0 Bft)
12.05.2010 18:34 15,0 C 8,1 C 0,0 UV-I 0,0 C 55 % 86 % 0 % 1010,8 hPa 0,0 l/m 1,6 km/h (1 Bft) 0 min 0,0 km/h (0 Bft)
12.05.2010 18:36 14,8 C 8,1 C 0,1 UV-I 0,0 C 55 % 86 % 0 % 1010,8 hPa 0,0 l/m 1,6 km/h (1 Bft) 0 min 0,0 km/h (0 Bft)
12.05.2010 18:38 15,0 C 8,0 C 0,1 UV-I 0,1 C 55 % 86 % 3 % 1010,8 hPa 0,0 l/m 1,2 km/h (1 Bft) 0 min 0,0 km/h (0 Bft)
12.05.2010 18:40 15,0 C 8,0 C 0,1 UV-I 0,1 C 55 % 86 % 3 % 1010,8 hPa 0,0 l/m 0,4 km/h (0 Bft) 0 min 0,0 km/h (0 Bft)
12.05.2010 18:42 15,0 C 8,1 C 0,5 UV-I 0,0 C 55 % 87 % 0 % 1010,8 hPa 0,0 l/m 0,4 km/h (0 Bft) 0 min 5,1 km/h (1 Bft)
12.05.2010 18:44 15,0 C 8,0 C 0,5 UV-I 0,2 C 55 % 87 % 6 % 1010,8 hPa 0,0 l/m 0,8 km/h (0 Bft) 0 min 4,5 km/h (1 Bft)
12.05.2010 18:48 15,0 C 8,0 C 0,5 UV-I 0,4 C 55 % 86 % 11 % 1010,8 hPa 0,0 l/m 1,2 km/h (1 Bft) 0 min 0,0 km/h (0 Bft)
12.05.2010 18:50 15,0 C 8,0 C 0,5 UV-I 0,4 C 55 % 86 % 11 % 1010,8 hPa 0,0 l/m 1,2 km/h (1 Bft) 0 min 0,0 km/h (0 Bft)
12.05.2010 18:52 15,0 C 8,1 C 0,3 UV-I 0,3 C 55 % 86 % 9 % 1010,9 hPa 0,0 l/m 1,6 km/h (1 Bft) 0 min 9,0 km/h (2 Bft)
12.05.2010 18:54 14,8 C 8,1 C 0,3 UV-I 0,3 C 55 % 86 % 9 % 1010,9 hPa 0,0 l/m 1,6 km/h (1 Bft) 0 min 4,2 km/h (1 Bft)
12.05.2010 18:56 15,0 C 8,1 C 0,0 UV-I 0,3 C 55 % 86 % 9 % 1010,9 hPa 0,0 l/m 1,6 km/h (1 Bft) 0 min 6,4 km/h (2 Bft)
12.05.2010 18:58 15,0 C 8,1 C 0,0 UV-I 0,3 C 55 % 86 % 9 % 1010,9 hPa 0,0 l/m 1,6 km/h (1 Bft) 0 min 0,0 km/h (0 Bft)
12.05.2010 19:00 15,0 C 8,1 C 0,0 UV-I 0,2 C 55 % 86 % 6 % 1010,9 hPa 0,0 l/m 2,8 km/h (1 Bft) 0 min 5,8 km/h (2 Bft)
12.05.2010 19:02 14,8 C 8,0 C 0,2 UV-I 0,3 C 55 % 86 % 9 % 1010,9 hPa 0,0 l/m 3,6 km/h (1 Bft) 0 min 7,1 km/h (2 Bft)
12.05.2010 19:04 14,8 C 8,0 C 0,2 UV-I 0,2 C 55 % 86 % 6 % 1010,9 hPa 0,0 l/m 3,2 km/h (1 Bft) 0 min 0,0 km/h (0 Bft)
12.05.2010 19:06 14,8 C 8,1 C 0,2 UV-I 0,1 C 55 % 86 % 3 % 1010,9 hPa 0,0 l/m 3,2 km/h (1 Bft) 0 min 0,0 km/h (0 Bft)
12.05.2010 19:08 15,0 C 8,1 C 0,2 UV-I 0,0 C 55 % 86 % 0 % 1010,9 hPa 0,0 l/m 2,8 km/h (1 Bft) 0 min 3,9 km/h (1 Bft)
12.05.2010 19:10 15,0 C 8,0 C 0,2 UV-I 0,1 C 55 % 86 % 3 % 1010,9 hPa 0,0 l/m 2,0 km/h (1 Bft) 0 min 0,0 km/h (0 Bft)
12.05.2010 19:12 14,8 C 8,0 C 0,1 UV-I 0,1 C 55 % 86 % 3 % 1010,8 hPa 0,0 l/m 1,2 km/h (1 Bft) 0 min 0,0 km/h (0 Bft)
12.05.2010 19:14 15,0 C 8,0 C 0,1 UV-I 0,1 C 55 % 86 % 3 % 1010,8 hPa 0,0 l/m 0,4 km/h (0 Bft) 0 min 0,0 km/h (0 Bft)
12.05.2010 19:16 15,0 C 8,0 C 0,1 UV-I 0,1 C 55 % 86 % 3 % 1010,8 hPa 0,0 l/m 0,4 km/h (0 Bft) 0 min 0,0 km/h (0 Bft)
12.05.2010 19:18 14,8 C 8,0 C 0,1 UV-I 0,1 C 55 % 86 % 3 % 1010,8 hPa 0,0 l/m 0,4 km/h (0 Bft) 0 min 0,0 km/h (0 Bft)
12.05.2010 19:22 15,0 C 8,0 C 0,0 UV-I 0,1 C 55 % 86 % 3 % 1010,8 hPa 0,0 l/m 1,2 km/h (1 Bft) 0 min 0,0 km/h (0 Bft)
12.05.2010 19:24 15,0 C 8,0 C 0,0 UV-I 0,1 C 55 % 86 % 3 % 1010,8 hPa 0,0 l/m 1,2 km/h (1 Bft) 0 min 3,5 km/h (1 Bft)
12.05.2010 19:28 15,0 C 8,0 C 0,0 UV-I 0,0 C 55 % 86 % 0 % 1010,8 hPa 0,0 l/m 1,6 km/h (1 Bft) 0 min 0,0 km/h (0 Bft)
12.05.2010 19:30 15,0 C 8,0 C 0,0 UV-I 0,0 C 55 % 86 % 0 % 1010,8 hPa 0,0 l/m 1,6 km/h (1 Bft) 0 min 5,5 km/h (1 Bft)
12.05.2010 19:32 14,8 C 8,0 C 0,1 UV-I 0,0 C 55 % 86 % 0 % 1010,9 hPa 0,0 l/m 0,8 km/h (0 Bft) 0 min 0,0 km/h (0 Bft)
12.05.2010 19:34 15,0 C 8,1 C 0,1 UV-I 0,0 C 55 % 86 % 0 % 1010,9 hPa 0,0 l/m 0,8 km/h (0 Bft) 0 min 0,0 km/h (0 Bft)
12.05.2010 19:38 14,8 C 8,0 C 0,1 UV-I 0,0 C 55 % 86 % 0 % 1010,9 hPa 0,0 l/m 0,8 km/h (0 Bft) 0 min 4,2 km/h (1 Bft)
12.05.2010 19:40 14,8 C 7,9 C 0,1 UV-I 0,1 C 55 % 86 % 3 % 1010,9 hPa 0,0 l/m 0,8 km/h (0 Bft) 0 min 0,0 km/h (0 Bft)
12.05.2010 19:42 15,0 C 8,0 C 0,1 UV-I 0,0 C 55 % 86 % 0 % 1010,9 hPa 0,0 l/m 0,8 km/h (0 Bft) 0 min 0,0 km/h (0 Bft)
12.05.2010 19:44 14,8 C 8,0 C 0,1 UV-I 0,0 C 55 % 87 % 0 % 1010,9 hPa 0,0 l/m 0,8 km/h (0 Bft) 0 min 0,0 km/h (0 Bft)
12.05.2010 19:46 14,8 C 8,0 C 0,1 UV-I 0,0 C 55 % 87 % 0 % 1010,9 hPa 0,0 l/m 0,8 km/h (0 Bft) 0 min 3,2 km/h (1 Bft)
12.05.2010 19:48 14,8 C 8,0 C 0,1 UV-I 0,0 C 55 % 87 % 0 % 1010,9 hPa 0,0 l/m 0,8 km/h (0 Bft) 0 min 0,0 km/h (0 Bft)
12.05.2010 19:50 14,8 C 8,0 C 0,1 UV-I 0,0 C 55 % 87 % 0 % 1010,9 hPa 0,0 l/m 0,8 km/h (0 Bft) 0 min 0,0 km/h (0 Bft)
12.05.2010 19:52 14,8 C 7,9 C 0,1 UV-I 0,0 C 55 % 86 % 0 % 1010,9 hPa 0,0 l/m 0,4 km/h (0 Bft) 0 min 0,0 km/h (0 Bft)
12.05.2010 19:54 14,8 C 8,0 C 0,1 UV-I 0,0 C 55 % 86 % 0 % 1010,9 hPa 0,0 l/m 0,4 km/h (0 Bft) 0 min 0,0 km/h (0 Bft)
12.05.2010 19:56 14,8 C 7,9 C 0,2 UV-I 0,0 C 55 % 86 % 0 % 1010,9 hPa 0,0 l/m 0,8 km/h (0 Bft) 0 min 3,5 km/h (1 Bft)
12.05.2010 19:58 14,8 C 7,9 C 0,2 UV-I 0,0 C 55 % 86 % 0 % 1010,9 hPa 0,0 l/m 0,8 km/h (0 Bft) 0 min 3,9 km/h (1 Bft)
12.05.2010 20:00 14,8 C 7,9 C 0,2 UV-I 0,0 C 55 % 86 % 0 % 1010,9 hPa 0,0 l/m 1,2 km/h (1 Bft) 0 min 3,9 km/h (1 Bft)
12.05.2010 20:04 14,8 C 7,9 C 0,1 UV-I 0,0 C 55 % 86 % 0 % 1010,9 hPa 0,0 l/m 1,6 km/h (1 Bft) 0 min 0,0 km/h (0 Bft)
12.05.2010 20:06 14,8 C 7,9 C 0,0 UV-I 0,0 C 55 % 87 % 0 % 1010,9 hPa 0,0 l/m 1,2 km/h (1 Bft) 0 min 0,0 km/h (0 Bft)
12.05.2010 20:08 14,8 C 7,9 C 0,0 UV-I 0,0 C 55 % 87 % 0 % 1010,9 hPa 0,0 l/m 1,2 km/h (1 Bft) 0 min 0,0 km/h (0 Bft)
12.05.2010 20:10 14,8 C 7,9 C 0,0 UV-I 0,0 C 55 % 87 % 0 % 1010,9 hPa 0,0 l/m 0,8 km/h (0 Bft) 0 min 0,0 km/h (0 Bft)
12.05.2010 20:12 14,8 C 7,9 C 0,0 UV-I 0,0 C 55 % 87 % 0 % 1011,2 hPa 0,0 l/m 0,4 km/h (0 Bft) 0 min 0,0 km/h (0 Bft)
12.05.2010 20:14 14,8 C 7,9 C 0,0 UV-I 0,0 C 55 % 87 % 0 % 1011,2 hPa 0,0 l/m 0,0 km/h (0 Bft) 0 min 0,0 km/h (0 Bft)
12.05.2010 20:16 14,8 C 7,9 C 0,0 UV-I 0,0 C 55 % 87 % 0 % 1011,2 hPa 0,0 l/m 0,0 km/h (0 Bft) 0 min 0,0 km/h (0 Bft)
12.05.2010 20:22 14,8 C 7,8 C 0,0 UV-I 0,0 C 55 % 87 % 0 % 1011,2 hPa 0,0 l/m 0,8 km/h (0 Bft) 0 min 0,0 km/h (0 Bft)
12.05.2010 20:24 14,8 C 7,8 C 0,0 UV-I 0,0 C 55 % 87 % 0 % 1011,2 hPa 0,0 l/m 0,8 km/h (0 Bft) 0 min 0,0 km/h (0 Bft)
12.05.2010 20:26 14,9 C 7,9 C 0,0 UV-I 0,0 C 55 % 87 % 0 % 1011,2 hPa 0,0 l/m 0,8 km/h (0 Bft) 0 min 0,0 km/h (0 Bft)
12.05.2010 20:28 14,9 C 7,9 C 0,0 UV-I 0,0 C 55 % 87 % 0 % 1011,2 hPa 0,0 l/m 0,8 km/h (0 Bft) 0 min 0,0 km/h (0 Bft)
12.05.2010 20:30 14,9 C 7,7 C 0,0 UV-I 0,0 C 55 % 87 % 0 % 1011,2 hPa 0,0 l/m 0,8 km/h (0 Bft) 0 min 5,8 km/h (2 Bft)
12.05.2010 20:32 14,8 C 7,7 C 0,0 UV-I 0,0 C 55 % 87 % 0 % 1011,1 hPa 0,0 l/m 0,8 km/h (0 Bft) 0 min 5,5 km/h (1 Bft)
12.05.2010 20:34 14,8 C 7,7 C 0,0 UV-I 0,0 C 55 % 87 % 0 % 1011,1 hPa 0,0 l/m 0,8 km/h (0 Bft) 0 min 3,5 km/h (1 Bft)
12.05.2010 20:36 14,8 C 7,7 C 0,0 UV-I 0,0 C 55 % 88 % 0 % 1011,1 hPa 0,0 l/m 1,2 km/h (1 Bft) 0 min 0,0 km/h (0 Bft)
12.05.2010 20:38 14,9 C 7,7 C 0,0 UV-I 0,0 C 55 % 88 % 0 % 1011,1 hPa 0,0 l/m 1,2 km/h (1 Bft) 0 min 0,0 km/h (0 Bft)
12.05.2010 20:42 14,9 C 7,6 C 0,0 UV-I 0,0 C 55 % 88 % 0 % 1011,1 hPa 0,0 l/m 1,2 km/h (1 Bft) 0 min 5,1 km/h (1 Bft)
12.05.2010 20:44 14,9 C 7,6 C 0,0 UV-I 0,0 C 55 % 88 % 0 % 1011,1 hPa 0,0 l/m 0,8 km/h (0 Bft) 0 min 0,0 km/h (0 Bft)
12.05.2010 20:46 14,8 C 7,6 C 0,0 UV-I 0,0 C 55 % 88 % 0 % 1011,1 hPa 0,0 l/m 0,4 km/h (0 Bft) 0 min 0,0 km/h (0 Bft)
12.05.2010 20:48 14,9 C 7,7 C 0,0 UV-I 0,0 C 55 % 89 % 0 % 1011,1 hPa 0,0 l/m 0,4 km/h (0 Bft) 0 min 0,0 km/h (0 Bft)
12.05.2010 20:50 14,9 C 7,6 C 0,0 UV-I 0,0 C 55 % 88 % 0 % 1011,1 hPa 0,0 l/m 0,4 km/h (0 Bft) 0 min 0,0 km/h (0 Bft)
12.05.2010 20:52 14,9 C 7,6 C 0,0 UV-I 0,0 C 55 % 88 % 0 % 1011,4 hPa 0,0 l/m 0,0 km/h (0 Bft) 0 min 0,0 km/h (0 Bft)
12.05.2010 20:54 14,9 C 7,6 C 0,0 UV-I 0,0 C 55 % 88 % 0 % 1011,4 hPa 0,0 l/m 0,0 km/h (0 Bft) 0 min 0,0 km/h (0 Bft)
12.05.2010 20:56 14,8 C 7,6 C 0,0 UV-I 0,0 C 55 % 89 % 0 % 1011,4 hPa 0,0 l/m 0,0 km/h (0 Bft) 0 min 0,0 km/h (0 Bft)
12.05.2010 20:58 14,8 C 7,5 C 0,0 UV-I 0,0 C 55 % 89 % 0 % 1011,4 hPa 0,0 l/m 0,0 km/h (0 Bft) 0 min 0,0 km/h (0 Bft)
12.05.2010 21:00 14,8 C 7,5 C 0,0 UV-I 0,0 C 55 % 89 % 0 % 1011,4 hPa 0,0 l/m 0,0 km/h (0 Bft) 0 min 0,0 km/h (0 Bft)
12.05.2010 21:02 14,8 C 7,5 C 0,0 UV-I 0,0 C 55 % 89 % 0 % 1011,4 hPa 0,0 l/m 0,0 km/h (0 Bft) 0 min 0,0 km/h (0 Bft)
12.05.2010 21:04 14,8 C 7,5 C 0,0 UV-I 0,0 C 55 % 89 % 0 % 1011,4 hPa 0,0 l/m 0,0 km/h (0 Bft) 0 min 0,0 km/h (0 Bft)
12.05.2010 21:06 14,8 C 7,5 C 0,0 UV-I 0,0 C 55 % 89 % 0 % 1011,4 hPa 0,0 l/m 0,0 km/h (0 Bft) 0 min 0,0 km/h (0 Bft)
12.05.2010 21:08 14,8 C 7,5 C 0,0 UV-I 0,0 C 55 % 89 % 0 % 1011,4 hPa 0,0 l/m 0,0 km/h (0 Bft) 0 min 0,0 km/h (0 Bft)
12.05.2010 21:14 14,8 C 7,4 C 0,0 UV-I 0,0 C 55 % 89 % 0 % 1011,4 hPa 0,0 l/m 0,8 km/h (0 Bft) 0 min 0,0 km/h (0 Bft)
12.05.2010 21:16 14,8 C 7,4 C 0,0 UV-I 0,0 C 55 % 89 % 0 % 1011,4 hPa 0,0 l/m 0,8 km/h (0 Bft) 0 min 0,0 km/h (0 Bft)
12.05.2010 21:18 14,8 C 7,5 C 0,0 UV-I 0,0 C 55 % 89 % 0 % 1011,4 hPa 0,0 l/m 0,8 km/h (0 Bft) 0 min 0,0 km/h (0 Bft)
12.05.2010 21:20 14,8 C 7,5 C 0,0 UV-I 0,0 C 55 % 89 % 0 % 1011,4 hPa 0,0 l/m 0,8 km/h (0 Bft) 0 min 0,0 km/h (0 Bft)
12.05.2010 21:22 14,8 C 7,5 C 0,0 UV-I 0,0 C 55 % 89 % 0 % 1011,4 hPa 0,0 l/m 0,8 km/h (0 Bft) 0 min 0,0 km/h (0 Bft)
12.05.2010 21:24 14,8 C 7,5 C 0,0 UV-I 0,0 C 55 % 89 % 0 % 1011,4 hPa 0,0 l/m 0,0 km/h (0 Bft) 0 min 0,0 km/h (0 Bft)
12.05.2010 21:26 14,8 C 7,4 C 0,0 UV-I 0,0 C 55 % 89 % 0 % 1011,4 hPa 0,0 l/m 0,0 km/h (0 Bft) 0 min 3,5 km/h (1 Bft)
12.05.2010 21:30 14,8 C 7,4 C 0,0 UV-I 0,0 C 55 % 89 % 0 % 1011,4 hPa 0,0 l/m 0,4 km/h (0 Bft) 0 min 0,0 km/h (0 Bft)
12.05.2010 21:34 14,8 C 7,3 C 0,0 UV-I 0,0 C 55 % 89 % 0 % 1011,4 hPa 0,0 l/m 0,4 km/h (0 Bft) 0 min 0,0 km/h (0 Bft)
12.05.2010 21:36 14,8 C 7,3 C 0,0 UV-I 0,0 C 55 % 89 % 0 % 1011,4 hPa 0,0 l/m 0,4 km/h (0 Bft) 0 min 0,0 km/h (0 Bft)
12.05.2010 21:38 14,8 C 7,3 C 0,0 UV-I 0,0 C 55 % 89 % 0 % 1011,4 hPa 0,0 l/m 0,0 km/h (0 Bft) 0 min 0,0 km/h (0 Bft)
12.05.2010 21:40 14,8 C 7,3 C 0,0 UV-I 0,0 C 55 % 89 % 0 % 1011,4 hPa 0,0 l/m 0,0 km/h (0 Bft) 0 min 0,0 km/h (0 Bft)
12.05.2010 21:44 14,8 C 7,3 C 0,0 UV-I 0,0 C 55 % 90 % 0 % 1011,4 hPa 0,0 l/m 0,0 km/h (0 Bft) 0 min 0,0 km/h (0 Bft)
12.05.2010 21:46 14,8 C 7,3 C 0,0 UV-I 0,0 C 55 % 90 % 0 % 1011,4 hPa 0,0 l/m 0,0 km/h (0 Bft) 0 min 0,0 km/h (0 Bft)
12.05.2010 21:48 14,8 C 7,3 C 0,0 UV-I 0,0 C 56 % 90 % 0 % 1011,4 hPa 0,0 l/m 0,0 km/h (0 Bft) 0 min 0,0 km/h (0 Bft)
12.05.2010 21:50 14,8 C 7,3 C 0,0 UV-I 0,0 C 55 % 90 % 0 % 1011,4 hPa 0,0 l/m 0,0 km/h (0 Bft) 0 min 0,0 km/h (0 Bft)
12.05.2010 21:52 14,8 C 7,3 C 0,0 UV-I 0,0 C 56 % 90 % 0 % 1011,7 hPa 0,0 l/m 0,0 km/h (0 Bft) 0 min 0,0 km/h (0 Bft)
12.05.2010 21:54 14,8 C 7,2 C 0,0 UV-I 0,0 C 56 % 90 % 0 % 1011,7 hPa 0,0 l/m 0,0 km/h (0 Bft) 0 min 0,0 km/h (0 Bft)
12.05.2010 21:56 14,8 C 7,3 C 0,0 UV-I 0,0 C 56 % 90 % 0 % 1011,7 hPa 0,0 l/m 0,0 km/h (0 Bft) 0 min 0,0 km/h (0 Bft)
12.05.2010 21:58 14,8 C 7,3 C 0,0 UV-I 0,0 C 56 % 90 % 0 % 1011,7 hPa 0,0 l/m 0,0 km/h (0 Bft) 0 min 0,0 km/h (0 Bft)
12.05.2010 22:00 14,8 C 7,2 C 0,0 UV-I 0,0 C 56 % 90 % 0 % 1011,7 hPa 0,0 l/m 0,0 km/h (0 Bft) 0 min 0,0 km/h (0 Bft)
12.05.2010 22:02 14,8 C 7,2 C 0,0 UV-I 0,0 C 56 % 90 % 0 % 1011,7 hPa 0,0 l/m 0,0 km/h (0 Bft) 0 min 0,0 km/h (0 Bft)
12.05.2010 22:04 14,8 C 7,2 C 0,0 UV-I 0,0 C 56 % 90 % 0 % 1011,7 hPa 0,0 l/m 0,0 km/h (0 Bft) 0 min 0,0 km/h (0 Bft)
12.05.2010 22:06 14,8 C 7,2 C 0,0 UV-I 0,0 C 56 % 90 % 0 % 1011,7 hPa 0,0 l/m 0,0 km/h (0 Bft) 0 min 0,0 km/h (0 Bft)
12.05.2010 22:08 14,8 C 7,2 C 0,0 UV-I 0,0 C 56 % 90 % 0 % 1011,7 hPa 0,0 l/m 0,0 km/h (0 Bft) 0 min 0,0 km/h (0 Bft)
12.05.2010 22:10 14,8 C 7,2 C 0,0 UV-I 0,0 C 56 % 90 % 0 % 1011,7 hPa 0,0 l/m 0,0 km/h (0 Bft) 0 min 0,0 km/h (0 Bft)
12.05.2010 22:12 14,8 C 7,2 C 0,0 UV-I 0,0 C 56 % 90 % 0 % 1011,9 hPa 0,0 l/m 0,0 km/h (0 Bft) 0 min 0,0 km/h (0 Bft)
12.05.2010 22:14 14,8 C 7,2 C 0,0 UV-I 0,0 C 56 % 90 % 0 % 1011,9 hPa 0,0 l/m 0,0 km/h (0 Bft) 0 min 0,0 km/h (0 Bft)
12.05.2010 22:16 14,8 C 7,3 C 0,0 UV-I 0,0 C 56 % 91 % 0 % 1011,9 hPa 0,0 l/m 0,0 km/h (0 Bft) 0 min 0,0 km/h (0 Bft)
12.05.2010 22:18 14,8 C 7,3 C 0,0 UV-I 0,0 C 56 % 91 % 0 % 1011,9 hPa 0,0 l/m 0,0 km/h (0 Bft) 0 min 0,0 km/h (0 Bft)
12.05.2010 22:22 14,8 C 7,3 C 0,0 UV-I 0,0 C 56 % 91 % 0 % 1011,9 hPa 0,0 l/m 0,0 km/h (0 Bft) 0 min 0,0 km/h (0 Bft)
12.05.2010 22:24 14,8 C 7,2 C 0,0 UV-I 0,0 C 56 % 90 % 0 % 1011,9 hPa 0,0 l/m 0,0 km/h (0 Bft) 0 min 0,0 km/h (0 Bft)
12.05.2010 22:26 14,8 C 7,2 C 0,0 UV-I 0,0 C 56 % 90 % 0 % 1011,9 hPa 0,0 l/m 0,0 km/h (0 Bft) 0 min 0,0 km/h (0 Bft)
12.05.2010 22:30 14,8 C 7,2 C 0,0 UV-I 0,0 C 56 % 90 % 0 % 1011,9 hPa 0,0 l/m 0,0 km/h (0 Bft) 0 min 0,0 km/h (0 Bft)
12.05.2010 22:32 14,8 C 7,3 C 0,0 UV-I 0,0 C 56 % 91 % 0 % 1011,6 hPa 0,0 l/m 0,0 km/h (0 Bft) 0 min 0,0 km/h (0 Bft)
12.05.2010 22:34 14,8 C 7,2 C 0,0 UV-I 0,0 C 56 % 90 % 0 % 1011,6 hPa 0,0 l/m 0,0 km/h (0 Bft) 0 min 0,0 km/h (0 Bft)
12.05.2010 22:36 14,8 C 7,2 C 0,0 UV-I 0,0 C 56 % 90 % 0 % 1011,6 hPa 0,0 l/m 0,0 km/h (0 Bft) 0 min 0,0 km/h (0 Bft)
12.05.2010 22:38 14,8 C 7,3 C 0,0 UV-I 0,0 C 56 % 91 % 0 % 1011,6 hPa 0,0 l/m 0,0 km/h (0 Bft) 0 min 0,0 km/h (0 Bft)
12.05.2010 22:40 14,8 C 7,2 C 0,0 UV-I 0,0 C 56 % 90 % 0 % 1011,6 hPa 0,0 l/m 0,0 km/h (0 Bft) 0 min 0,0 km/h (0 Bft)
12.05.2010 22:42 14,8 C 7,2 C 0,0 UV-I 0,0 C 56 % 90 % 0 % 1011,6 hPa 0,0 l/m 0,0 km/h (0 Bft) 0 min 0,0 km/h (0 Bft)
12.05.2010 22:44 14,8 C 7,3 C 0,0 UV-I 0,0 C 56 % 91 % 0 % 1011,6 hPa 0,0 l/m 0,8 km/h (0 Bft) 0 min 0,0 km/h (0 Bft)
12.05.2010 22:48 14,8 C 7,2 C 0,0 UV-I 0,0 C 56 % 90 % 0 % 1011,6 hPa 0,0 l/m 0,8 km/h (0 Bft) 0 min 0,0 km/h (0 Bft)
12.05.2010 22:50 14,8 C 7,3 C 0,0 UV-I 0,0 C 56 % 91 % 0 % 1011,6 hPa 0,0 l/m 1,6 km/h (1 Bft) 0 min 0,0 km/h (0 Bft)
12.05.2010 22:52 14,8 C 7,2 C 0,0 UV-I 0,0 C 56 % 90 % 0 % 1011,8 hPa 0,0 l/m 1,6 km/h (1 Bft) 0 min 0,0 km/h (0 Bft)
12.05.2010 22:58 14,8 C 7,2 C 0,0 UV-I 0,0 C 56 % 90 % 0 % 1011,8 hPa 0,0 l/m 0,8 km/h (0 Bft) 0 min 0,0 km/h (0 Bft)
12.05.2010 23:02 14,6 C 7,1 C 0,0 UV-I 0,0 C 56 % 90 % 0 % 1011,8 hPa 0,0 l/m 1,6 km/h (1 Bft) 0 min 7,4 km/h (2 Bft)
12.05.2010 23:04 14,6 C 7,1 C 0,0 UV-I 0,0 C 56 % 91 % 0 % 1011,8 hPa 0,0 l/m 2,0 km/h (1 Bft) 0 min 0,0 km/h (0 Bft)
12.05.2010 23:06 14,6 C 7,1 C 0,0 UV-I 0,0 C 56 % 91 % 0 % 1011,8 hPa 0,0 l/m 2,4 km/h (1 Bft) 0 min 0,0 km/h (0 Bft)
12.05.2010 23:10 14,8 C 7,1 C 0,0 UV-I 0,0 C 56 % 91 % 0 % 1011,8 hPa 0,0 l/m 2,0 km/h (1 Bft) 0 min 0,0 km/h (0 Bft)
12.05.2010 23:14 14,6 C 7,0 C 0,0 UV-I 0,0 C 56 % 91 % 0 % 1011,9 hPa 0,0 l/m 0,8 km/h (0 Bft) 0 min 3,5 km/h (1 Bft)
12.05.2010 23:18 14,6 C 7,1 C 0,0 UV-I 0,0 C 56 % 91 % 0 % 1011,9 hPa 0,0 l/m 0,8 km/h (0 Bft) 0 min 0,0 km/h (0 Bft)
12.05.2010 23:20 14,6 C 7,1 C 0,0 UV-I 0,0 C 56 % 91 % 0 % 1011,9 hPa 0,0 l/m 1,2 km/h (1 Bft) 0 min 7,7 km/h (2 Bft)
12.05.2010 23:22 14,6 C 7,1 C 0,0 UV-I 0,0 C 56 % 91 % 0 % 1011,9 hPa 0,0 l/m 1,6 km/h (1 Bft) 0 min 0,0 km/h (0 Bft)
12.05.2010 23:24 14,6 C 7,1 C 0,0 UV-I 0,0 C 56 % 91 % 0 % 1011,9 hPa 0,0 l/m 1,2 km/h (1 Bft) 0 min 0,0 km/h (0 Bft)
12.05.2010 23:28 14,6 C 7,1 C 0,0 UV-I 0,0 C 56 % 91 % 0 % 1011,9 hPa 0,0 l/m 0,8 km/h (0 Bft) 0 min 0,0 km/h (0 Bft)
12.05.2010 23:30 14,7 C 7,1 C 0,0 UV-I 0,0 C 56 % 91 % 0 % 1011,9 hPa 0,0 l/m 0,8 km/h (0 Bft) 0 min 0,0 km/h (0 Bft)
12.05.2010 23:32 14,6 C 7,0 C 0,0 UV-I 0,0 C 56 % 91 % 0 % 1012,0 hPa 0,0 l/m 0,0 km/h (0 Bft) 0 min 0,0 km/h (0 Bft)
12.05.2010 23:34 14,6 C 7,0 C 0,0 UV-I 0,0 C 56 % 91 % 0 % 1012,0 hPa 0,0 l/m 0,0 km/h (0 Bft) 0 min 0,0 km/h (0 Bft)
12.05.2010 23:36 14,7 C 6,9 C 0,0 UV-I 0,0 C 56 % 91 % 0 % 1012,0 hPa 0,0 l/m 0,0 km/h (0 Bft) 0 min 0,0 km/h (0 Bft)
12.05.2010 23:38 14,7 C 6,9 C 0,0 UV-I 0,0 C 56 % 91 % 0 % 1012,0 hPa 0,0 l/m 0,0 km/h (0 Bft) 0 min 0,0 km/h (0 Bft)
12.05.2010 23:40 14,6 C 6,9 C 0,0 UV-I 0,0 C 56 % 91 % 0 % 1012,0 hPa 0,0 l/m 0,0 km/h (0 Bft) 0 min 0,0 km/h (0 Bft)
12.05.2010 23:42 14,7 C 6,9 C 0,0 UV-I 0,0 C 56 % 91 % 0 % 1012,0 hPa 0,0 l/m 0,0 km/h (0 Bft) 0 min 0,0 km/h (0 Bft)
12.05.2010 23:44 14,6 C 6,9 C 0,0 UV-I 0,0 C 56 % 91 % 0 % 1012,0 hPa 0,0 l/m 0,0 km/h (0 Bft) 0 min 0,0 km/h (0 Bft)
12.05.2010 23:46 14,6 C 6,9 C 0,0 UV-I 0,0 C 56 % 91 % 0 % 1012,0 hPa 0,0 l/m 0,4 km/h (0 Bft) 0 min 4,2 km/h (1 Bft)
12.05.2010 23:48 14,6 C 6,9 C 0,0 UV-I 0,0 C 56 % 92 % 0 % 1012,0 hPa 0,0 l/m 0,4 km/h (0 Bft) 0 min 0,0 km/h (0 Bft)
12.05.2010 23:50 14,6 C 6,9 C 0,0 UV-I 0,0 C 56 % 92 % 0 % 1012,0 hPa 0,0 l/m 0,4 km/h (0 Bft) 0 min 0,0 km/h (0 Bft)
12.05.2010 23:52 14,6 C 6,9 C 0,0 UV-I 0,0 C 56 % 92 % 0 % 1012,2 hPa 0,0 l/m 0,4 km/h (0 Bft) 0 min 0,0 km/h (0 Bft)
12.05.2010 23:56 14,7 C 6,9 C 0,0 UV-I 0,0 C 56 % 92 % 0 % 1012,2 hPa 0,0 l/m 0,4 km/h (0 Bft) 0 min 0,0 km/h (0 Bft)
12.05.2010 23:58 14,6 C 6,9 C 0,0 UV-I 0,0 C 56 % 92 % 0 % 1012,2 hPa 0,0 l/m 0,0 km/h (0 Bft) 0 min 0,0 km/h (0 Bft)
_ Min-Zeit 07:34 03:58 00:03 00:03 00:03 18:28 00:03 02:53 - 20:14 - 03:28
Minimum _ 14,6 C 5,3 C 0,0 UV-I 0,0 C 53 % 86 % 0 % 1004,3 hPa - 0,0 km/h (0 Bft) - 0,0 km/h (0 Bft)
_ Max-Zeit 15:18 17:36 13:12 15:04 21:48 06:58 15:04 23:52 00:08 00:53 00:03 00:53
Maximum _ 15,2 C 8,1 C 2,7 UV-I 1,4 C 56 % 95 % 40 % 1012,2 hPa 0,4 l/m 17,7 km/h
W-SW (3 Bft)
0 min 20,3 km/h
W-SW (4 Bft)
Durchschnitt _ 14,9 C 6,6 C 0,4 UV-I 0,2 C 55 % 92 % 6 % 1008,3 hPa #5,5 l/m 4,2 km/h (1 Bft) #0 min. 5,1 km/h (1 Bft)
© 2012 W. Hausmann